                ,  0.482,  0.579,  0.676,  0.773,  0.870,  0.967,  1.064,  1.161,  1.258,  1.354,  1.451,  1.548,  1.645,  1.742,  1.839,  1.936,  2.033,  2.130,  2.227,  2.324,  2.421,  2.518,  2.615,  2.712,  2.809,  2.906,  3.003,  3.099,  3.196,  3.293,  3.390,  3.487,  3.584,  3.681,  3.778,  3.875,  3.972,  4.069,  4.166,  4.263,  4.360,  4.457,  4.554,  4.651,  4.748,  4.844,  4.941,  5.038,  5.135,  5.232,  5.329,  5.426,  5.523,  5.620,  5.717,  5.814,  5.911,  6.008,  6.105,  6.202,  6.299,  6.396,  6.493,  6.589,  6.686,  6.783,  6.880,  6.977,  7.074,  7.171,  7.268,  7.365,  7.462,  7.559,  7.656,  7.753,  7.850,  7.947,  8.044,  8.141
2020/04/13 00:00,  999.0,  999.0,  -21.0,  -23.0,  -27.0,  -30.0,  -29.4,  -27.8,  -26.8,  -26.1,  -24.5,  -23.7,  -23.3,  999.0,  999.0,  999.0,  999.0,  999.0,  999.0,  999.0,  999.0,  999.0,   -0.1,    0.0,    0.0,   -0.1,    0.1,    0.0,   -0.1,    0.1,   -0.0,   -0.0,    0.1,  999.0,  999.0,  999.0,  999.0,    4.1,  999.0,    4.6,  999.0,    5.8,  999.0,  999.0,  999.0,  999.0,  999.0,  999.0,  999.0,  999.0,  999.0,  999.0,  999.0,  999.0,  999.0,  999.0,  999.0,  999.0,  999.0,  999.0,  999.0,  999.0,  999.0,  999.0,  999.0,  999.0,  999.0,  999.0,  999.0,  999.0,  999.0,  999.0,  999.0,  999.0,  999.0,  999.0,  999.0,  999.0,  999.0,  999.0
2020/04/13 00:10,  999.0,  -17.4,  999.0,  -21.8,  -24.6,  -27.9,  -29.3,  -29.5,  -28.2,  -26.9,  -26.0,  999.0,  999.0,  999.0,  999.0,  999.0,  999.0,  999.0,  999.0,  999.0,  999.0,   -0.1,   -0.0,   -0.1,   -0.1,   -0.0,   -0.0,   -0.0,   -0.1,   -0.1,   -0.4,   -0.5,   -0.3,  999.0,  999.0,  999.0,  999.0,  999.0,    5.0,    5.9,    4.4,  999.0,    5.4,  999.0,  999.0,  999.0,  999.0,  999.0,  999.0,  999.0,  999.0,  999.0,  999.0,  999.0,  999.0,  999.0,  999.0,  999.0,  999.0,  999.0,  999.0,  999.0,  999.0,  999.0,  999.0,  999.0,  999.0,  999.0,  999.0,  999.0,  999.0,  999.0,  999.0,  999.0,  999.0,  999.0,  999.0,  999.0,  999.0,  999.0
2020/04/13 00:20,  999.0,  999.0,  -18.9,  -19.6,  -22.1,  -25.9,  -28.5,  999.0,  999.0,  999.0,  999.0,  999.0,  999.0,  999.0,  999.0,  999.0,  999.0,  999.0,  999.0,  999.0,  999.0,    0.1,    0.0,    0.1,   -0.0,   -0.1,    0.0,   -0.0,   -0.1,   -0.0,   -0.1,   -0.1,    0.0,  999.0,  999.0,  999.0,  999.0,  999.0,  999.0,  999.0,    4.7,    6.0,  999.0,  999.0,  999.0,  999.0,  999.0,  999.0,  999.0,  999.0,  999.0,  999.0,  999.0,  999.0,  999.0,  999.0,  999.0,  999.0,  999.0,  999.0,  999.0,  999.0,  999.0,  999.0,  999.0,  999.0,  999.0,  999.0,  999.0,  999.0,  999.0,  999.0,  999.0,  999.0,  999.0,  999.0,  999.0,  999.0,  999.0,  999.0
2020/04/13 00:30,  999.0,  -16.3,  -17.5,  -18.3,  -21.5,  -23.1,  -27.1,  -30.3,  -29.5,  -27.9,  -27.0,  -26.6,  -27.0,  -26.7,  -25.0,  -22.9,  -21.6,  -19.7,  999.0,  999.0,   -6.8,  999.0,  999.0,    0.1,   -0.1,   -0.1,    0.1,    0.1,   -0.1,  999.0,   -1.3,   -0.8,    1.2,    3.6,  999.0,  999.0,  999.0,    7.6,  999.0,  999.0,  999.0,  999.0,  999.0,  999.0,  999.0,  999.0,  999.0,  999.0,  999.0,  999.0,  999.0,  999.0,  999.0,  999.0,  999.0,  999.0,  999.0,  999.0,  999.0,  999.0,  999.0,  999.0,  999.0,  999.0,  999.0,  999.0,  999.0,  999.0,  999.0,  999.0,  999.0,  999.0,  999.0,  999.0,  999.0,  999.0,  999.0,  999.0,  999.0,  999.0
2020/04/13 00:40,  999.0,  -17.6,  -20.0,  -21.5,  -24.0,  -26.3,  -29.0,  -30.8,  -30.7,  -29.5,  -28.4,  -27.4,  -27.3,  -25.9,  -24.6,  -22.9,  -20.3,  -19.9,  999.0,  999.0,  999.0,  999.0,  999.0,  999.0,  999.0,   -0.0,   -0.2,   -0.1,  999.0,   -0.0,   -1.4,   -1.1,  999.0,  999.0,  999.0,  999.0,    5.2,    6.9,  999.0,  999.0,  999.0,  999.0,  999.0,  999.0,  999.0,  999.0,  999.0,  999.0,  999.0,  999.0,  999.0,  999.0,  999.0,  999.0,  999.0,  999.0,  999.0,  999.0,  999.0,  999.0,  999.0,  999.0,  999.0,  999.0,  999.0,  999.0,  999.0,  999.0,  999.0,  999.0,  999.0,  999.0,  999.0,  999.0,  999.0,  999.0,  999.0,  999.0,  999.0,  999.0
2020/04/13 00:50,  999.0,  -20.4,  -19.9,  -23.9,  -24.7,  -26.5,  -28.2,  -30.3,  -31.0,  -29.5,  -29.1,  -28.1,  -27.5,  -27.6,  999.0,  -24.1,  999.0,  999.0,  999.0,  999.0,  999.0,  999.0,  999.0,  999.0,  999.0,  999.0,  999.0,  999.0,  999.0,   -1.9,   -0.9,   -0.3,   -1.2,    0.1,  999.0,  999.0,  999.0,    4.8,  999.0,  999.0,  999.0,  999.0,  999.0,  999.0,  999.0,  999.0,  999.0,  999.0,  999.0,  999.0,  999.0,  999.0,  999.0,  999.0,  999.0,  999.0,  999.0,  999.0,  999.0,  999.0,  999.0,  999.0,  999.0,  999.0,  999.0,  999.0,  999.0,  999.0,  999.0,  999.0,  999.0,  999.0,  999.0,  999.0,  999.0,  999.0,  999.0,  999.0,  999.0,  999.0
2020/04/13 01:00,  999.0,  999.0,  999.0,  -18.5,  -22.2,  -24.6,  -25.7,  -28.0,  -30.2,  -29.9,  -28.7,  -28.4,  -27.9,  -28.1,  -27.4,  -25.2,  -24.4,  -23.3,  -22.7,  999.0,  999.0,  999.0,  999.0,  999.0,  999.0,  999.0,  999.0,  999.0,  999.0,   -2.1,   -2.7,   -1.3,  999.0,  999.0,  999.0,  999.0,  999.0,    4.9,  999.0,  999.0,  999.0,  999.0,  999.0,  999.0,  999.0,  999.0,  999.0,  999.0,  999.0,  999.0,  999.0,  999.0,  999.0,  999.0,  999.0,  999.0,  999.0,  999.0,  999.0,  999.0,  999.0,  999.0,  999.0,  999.0,  999.0,  999.0,  999.0,  999.0,  999.0,  999.0,  999.0,  999.0,  999.0,  999.0,  999.0,  999.0,  999.0,  999.0,  999.0,  999.0
2020/04/13 01:10,  999.0,  -14.6,  -15.3,  -16.0,  -17.1,  -20.9,  -23.1,  -26.9,  -29.2,  -30.0,  -30.7,  -29.6,  -28.9,  -28.5,  -27.6,  -27.5,  -26.0,  -25.3,  -24.5,  -23.0,  999.0,  999.0,  999.0,  999.0,  999.0,  999.0,  999.0,  999.0,  999.0,   -4.5,  999.0,  999.0,  999.0,  999.0,  999.0,  999.0,  999.0,  999.0,    5.3,    5.5,  999.0,  999.0,  999.0,  999.0,  999.0,  999.0,  999.0,  999.0,  999.0,  999.0,  999.0,  999.0,  999.0,  999.0,  999.0,  999.0,  999.0,  999.0,  999.0,  999.0,  999.0,  999.0,  999.0,  999.0,  999.0,  999.0,  999.0,  999.0,  999.0,  999.0,  999.0,  999.0,  999.0,  999.0,  999.0,  999.0,  999.0,  999.0,  999.0,  999.0
2020/04/13 01:20,  999.0,  -13.4,  -15.4,  -17.0,  -17.5,  -19.3,  -21.1,  -25.4,  -28.1,  -30.4,  -31.2,  -30.5,  -30.5,  -29.9,  -29.3,  -27.8,  -26.3,  -24.9,  -23.4,  999.0,  999.0,  999.0,  999.0,  999.0,  999.0,  999.0,  999.0,  999.0,  999.0,  999.0,  999.0,  999.0,  999.0,   -0.2,  999.0,  999.0,  999.0,  999.0,  999.0,  999.0,  999.0,  999.0,  999.0,  999.0,  999.0,  999.0,  999.0,  999.0,  999.0,  999.0,  999.0,  999.0,  999.0,  999.0,  999.0,  999.0,  999.0,  999.0,  999.0,  999.0,  999.0,  999.0,  999.0,  999.0,  999.0,  999.0,  999.0,  999.0,  999.0,  999.0,  999.0,  999.0,  999.0,  999.0,  999.0,  999.0,  999.0,  999.0,  999.0,  999.0
2020/04/13 01:30,  999.0,  -16.0,  -17.4,  -20.2,  -19.9,  999.0,  -24.7,  -27.1,  -30.0,  -31.0,  -31.8,  -31.3,  -31.0,  -31.1,  -29.3,  -28.5,  -25.4,  -24.4,  -22.6,  999.0,  999.0,  999.0,  999.0,  999.0,  999.0,  999.0,  999.0,   -6.8,   -5.7,   -4.3,   -2.7,   -0.4,   -2.2,    0.5,  999.0,  999.0,  999.0,  999.0,  999.0,  999.0,  999.0,  999.0,  999.0,  999.0,  999.0,  999.0,  999.0,  999.0,  999.0,  999.0,  999.0,  999.0,  999.0,  999.0,  999.0,  999.0,  999.0,  999.0,  999.0,  999.0,  999.0,  999.0,  999.0,  999.0,  999.0,  999.0,  999.0,  999.0,  999.0,  999.0,  999.0,  999.0,  999.0,  999.0,  999.0,  999.0,  999.0,  999.0,  999.0,  999.0
2020/04/13 01:40,  999.0,  -15.4,  -17.1,  -18.6,  -20.2,  -21.7,  -22.6,  -25.8,  -28.2,  -30.4,  -31.3,  -31.2,  -31.5,  -31.4,  -31.1,  -30.3,  -27.9,  -26.6,  -24.7,  -23.5,  -22.3,  -19.8,  -18.1,  -16.7,  999.0,  999.0,  999.0,  999.0,   -4.3,   -2.3,   -1.6,    0.2,    3.4,  999.0,  999.0,  999.0,  999.0,  999.0,  999.0,  999.0,  999.0,  999.0,  999.0,  999.0,  999.0,  999.0,  999.0,  999.0,  999.0,  999.0,  999.0,  999.0,  999.0,  999.0,  999.0,  999.0,  999.0,  999.0,  999.0,  999.0,  999.0,  999.0,  999.0,  999.0,  999.0,  999.0,  999.0,  999.0,  999.0,  999.0,  999.0,  999.0,  999.0,  999.0,  999.0,  999.0,  999.0,  999.0,  999.0,  999.0
2020/04/13 01:50,  999.0,  999.0,  -13.8,  -15.6,  -16.6,  -19.1,  -23.3,  -25.0,  -26.8,  -29.0,  -30.7,  -31.7,  -32.4,  -31.2,  -30.1,  -28.9,  -26.3,  -23.8,  -23.7,  -23.2,  -17.9,  999.0,  999.0,  999.0,  999.0,  999.0,  999.0,  999.0,  999.0,   -2.5,  999.0,   -0.2,    0.8,    1.4,    2.0,  999.0,  999.0,   -0.3,   -0.1,    1.2,    1.9,    2.4,    3.0,    3.7,    4.3,    4.3,    4.7,    5.0,    5.3,    5.8,    6.2,    6.9,    7.4,    8.7,   10.6,   12.0,   13.1,   14.2,   13.9,   13.9,   13.5,   14.5,   15.4,  999.0,   18.4,  999.0,  999.0,  999.0,  999.0,  999.0,  999.0,  999.0,  999.0,  999.0,  999.0,  999.0,  999.0,  999.0,  999.0,  999.0
2020/04/13 02:00,  999.0,  999.0,  -20.0,  -18.6,  -21.2,  999.0,  999.0,  999.0,   14.9,   12.7,   11.5,   12.4,   12.8,   13.8,   14.0,   16.8,   15.7,  999.0,  999.0,  -20.3,  -19.3,  -18.2,  -17.9,  -16.8,  -16.5,  -14.6,  -13.8,  -16.2,  -15.8,  -15.2,  -13.5,  -14.7,  -15.0,  999.0,  999.0,   -8.2,  999.0,   -3.8,  999.0,   -0.5,    1.6,    0.5,    2.4,    3.2,    3.7,    3.9,    4.4,    4.4,    5.1,    5.6,    6.5,    7.4,    8.7,    9.8,   11.0,   12.2,   13.6,   14.6,   15.5,   15.7,   16.9,   16.2,  999.0,  999.0,  999.0,  999.0,  999.0,  999.0,  999.0,  999.0,  999.0,  999.0,  999.0,  999.0,  999.0,  999.0,  999.0,  999.0,  999.0,  999.0
2020/04/13 02:10,  999.0,  -16.3,  -17.4,  -19.8,  -20.8,  -21.8,  -24.4,  -24.8,  -28.8,  -28.9,  -30.4,  -32.6,  -31.6,  -30.1,  -29.1,  -26.3,  -24.9,  -23.7,  999.0,  -19.2,  -21.6,  -19.2,  -18.6,  -17.3,  -15.0,  999.0,  999.0,  999.0,  999.0,  999.0,  999.0,  999.0,  999.0,  999.0,  999.0,  999.0,  999.0,  999.0,  999.0,  999.0,  999.0,  999.0,  999.0,  999.0,  999.0,  999.0,  999.0,  999.0,  999.0,    5.3,  999.0,  999.0,  999.0,  999.0,  999.0,  999.0,  999.0,  999.0,  999.0,  999.0,  999.0,  999.0,  999.0,  999.0,  999.0,  999.0,  999.0,  999.0,  999.0,  999.0,  999.0,  999.0,  999.0,  999.0,  999.0,  999.0,  999.0,  999.0,  999.0,  999.0
2020/04/13 02:20,  999.0,  -14.4,  -15.6,  -16.3,  -18.2,  -21.4,  -22.5,  -24.2,  999.0,  -28.2,  -28.3,  -29.8,  -31.3,  -30.2,  -28.9,  -27.6,  -26.5,  -24.5,  -23.1,  -22.0,  999.0,  999.0,  999.0,  999.0,  999.0,  999.0,  999.0,  999.0,  999.0,  999.0,  999.0,  999.0,  999.0,  999.0,  999.0,  999.0,  999.0,  999.0,  999.0,  999.0,  999.0,  999.0,  999.0,  999.0,  999.0,  999.0,  999.0,  999.0,  999.0,  999.0,  999.0,  999.0,  999.0,  999.0,  999.0,  999.0,  999.0,  999.0,  999.0,  999.0,  999.0,  999.0,  999.0,  999.0,  999.0,  999.0,  999.0,  999.0,  999.0,  999.0,  999.0,  999.0,  999.0,  999.0,  999.0,  999.0,  999.0,  999.0,  999.0,  999.0
2020/04/13 02:30,  999.0,  -13.7,  -14.5,  -17.2,  -19.6,  -22.8,  -24.5,  -25.6,  -28.4,  -30.0,  -31.2,  -31.6,  -30.4,  -29.4,  -27.8,  -25.8,  999.0,  999.0,  999.0,  999.0,  999.0,  999.0,  999.0,  999.0,  999.0,  999.0,  999.0,  999.0,  999.0,  999.0,  999.0,  999.0,  999.0,  999.0,  999.0,  999.0,  999.0,  999.0,  999.0,  999.0,  999.0,  999.0,  999.0,  999.0,  999.0,  999.0,  999.0,  999.0,  999.0,  999.0,  999.0,  999.0,  999.0,  999.0,  999.0,  999.0,  999.0,  999.0,  999.0,  999.0,  999.0,  999.0,  999.0,  999.0,  999.0,  999.0,  999.0,  999.0,  999.0,  999.0,  999.0,  999.0,  999.0,  999.0,  999.0,  999.0,  999.0,  999.0,  999.0,  999.0
2020/04/13 02:40,  999.0,  -16.5,  -18.1,  -18.9,  -20.2,  -24.3,  -24.6,  -26.3,  -29.3,  -32.1,  -33.5,  -32.9,  -33.7,  -31.7,  -29.1,  -27.6,  -26.1,  -24.8,  999.0,  999.0,  999.0,  -18.3,  -14.8,  999.0,  999.0,  999.0,  999.0,  999.0,  999.0,  999.0,  999.0,  999.0,  999.0,  999.0,  999.0,  999.0,  999.0,  999.0,  999.0,  999.0,  999.0,  999.0,  999.0,  999.0,  999.0,  999.0,  999.0,  999.0,  999.0,  999.0,  999.0,  999.0,  999.0,  999.0,  999.0,  999.0,  999.0,  999.0,  999.0,  999.0,  999.0,  999.0,  999.0,  999.0,  999.0,  999.0,  999.0,  999.0,  999.0,  999.0,  999.0,  999.0,  999.0,  999.0,  999.0,  999.0,  999.0,  999.0,  999.0,  999.0
2020/04/13 02:50,  999.0,  -11.4,  -12.1,  999.0,  999.0,  -17.6,  -17.5,  -23.4,  -24.3,  -29.6,  -28.9,  -30.4,  -31.9,  -31.2,  -29.7,  -28.2,  -26.8,  -26.6,  999.0,  -19.7,  -20.4,  -20.2,  -18.6,  -16.5,  -15.9,  999.0,  -11.1,  999.0,  999.0,  999.0,  999.0,  999.0,  999.0,  999.0,  999.0,   -3.3,  999.0,  999.0,  999.0,  999.0,  999.0,  999.0,  999.0,  999.0,  999.0,  999.0,  999.0,  999.0,  999.0,  999.0,  999.0,  999.0,  999.0,  999.0,  999.0,  999.0,  999.0,  999.0,  999.0,  999.0,  999.0,  999.0,  999.0,  999.0,  999.0,  999.0,  999.0,  999.0,  999.0,  999.0,  999.0,  999.0,  999.0,  999.0,  999.0,  999.0,  999.0,  999.0,  999.0,  999.0
2020/04/13 03:00,  -10.8,  999.0,  999.0,   25.4,   25.6,   22.2,  999.0,   -1.4,    5.5,    5.8,   13.9,   12.7,   12.3,   12.2,   13.5,   15.4,   15.5,  999.0,  999.0,  -21.9,  -20.5,  -19.5,  -18.5,  -17.4,  -16.3,  -15.2,  -14.3,  -13.6,  -12.7,  -11.6,  -10.8,   -9.3,   -8.8,   -9.0,   -8.3,  999.0,  999.0,   -1.3,   -2.9,  999.0,  999.0,  999.0,  999.0,  999.0,  999.0,  999.0,  999.0,  999.0,  999.0,  999.0,  999.0,  999.0,  999.0,  999.0,  999.0,  999.0,  999.0,  999.0,  999.0,  999.0,  999.0,  999.0,  999.0,  999.0,  999.0,  999.0,  999.0,  999.0,  999.0,  999.0,  999.0,  999.0,  999.0,  999.0,  999.0,  999.0,  999.0,  999.0,  999.0,  999.0
2020/04/13 03:10,  -10.1,  999.0,  999.0,   28.0,   25.5,   25.6,   21.3,   20.1,   16.4,   15.5,   13.4,   13.4,   13.3,   15.2,   17.2,   18.4,   19.2,  999.0,  999.0,  -21.6,  -21.4,  -21.0,  -20.6,  -20.4,  -19.7,  -19.0,  -18.1,  -17.8,  -17.2,  -16.8,  -16.2,  -15.7,  -14.9,  -14.2,  -13.3,  -12.3,  -11.8,   -8.0,   -7.2,  999.0,   -4.7,  999.0,  999.0,  999.0,  999.0,  999.0,  999.0,  999.0,  999.0,  999.0,  999.0,  999.0,  999.0,  999.0,  999.0,  999.0,  999.0,  999.0,  999.0,  999.0,  999.0,  999.0,  999.0,  999.0,  999.0,  999.0,  999.0,  999.0,  999.0,  999.0,  999.0,  999.0,  999.0,  999.0,  999.0,  999.0,  999.0,  999.0,  999.0,  999.0
2020/04/13 03:20,  -10.0,  999.0,  999.0,  -16.9,  999.0,    3.6,   22.1,   20.7,   18.3,   15.2,   14.3,   13.4,   13.0,   13.5,   15.4,   16.6,   17.8,  999.0,  999.0,  -26.1,  -24.4,  -23.7,  -22.8,  -21.9,  -21.0,  -20.0,  -19.3,  -18.3,  -17.6,  -16.8,  -16.4,  -15.5,  -14.9,  -14.0,  -14.6,  -14.0,  -12.3,  999.0,  -10.8,  999.0,   -5.6,  999.0,  999.0,  999.0,  999.0,  999.0,  999.0,  999.0,  999.0,  999.0,  999.0,  999.0,  999.0,  999.0,  999.0,  999.0,  999.0,  999.0,  999.0,  999.0,  999.0,  999.0,  999.0,  999.0,  999.0,  999.0,  999.0,  999.0,  999.0,  999.0,  999.0,  999.0,  999.0,  999.0,  999.0,  999.0,  999.0,  999.0,  999.0,  999.0
2020/04/13 03:30,  999.0,  999.0,  -13.6,  -15.9,  -16.1,  999.0,  999.0,  999.0,   18.8,   14.8,   13.9,   11.6,   11.5,    9.4,    9.8,   12.2,  999.0,  999.0,  999.0,  -27.6,  -26.8,  -25.4,  -24.4,  -23.5,  -22.8,  -21.5,  -20.7,  -19.1,  -18.0,  -17.2,  -15.5,  -15.5,  -13.9,  -12.7,  -12.2,  999.0,   -9.2,   -5.5,   -3.8,   -2.1,   -0.3,  999.0,  999.0,  999.0,  999.0,  999.0,  999.0,  999.0,  999.0,  999.0,  999.0,  999.0,  999.0,  999.0,  999.0,  999.0,  999.0,  999.0,  999.0,  999.0,  999.0,  999.0,  999.0,  999.0,  999.0,  999.0,  999.0,  999.0,  999.0,  999.0,  999.0,  999.0,  999.0,  999.0,  999.0,  999.0,  999.0,  999.0,  999.0,  999.0
2020/04/13 03:40,  999.0,  -10.4,  999.0,  -12.7,  999.0,  999.0,  999.0,  999.0,  999.0,  999.0,   18.6,  999.0,   -8.4,   -0.8,   -7.2,  999.0,  -23.6,  -23.1,  -23.5,  -21.7,  -20.6,  -20.3,  -19.7,  -18.3,  -17.4,  -17.5,  -16.5,  -16.7,  -16.2,  -15.7,  -15.2,  -15.0,  -12.8,  -11.8,  -11.0,  999.0,  999.0,  999.0,  999.0,  999.0,  999.0,  999.0,  999.0,  999.0,  999.0,  999.0,  999.0,  999.0,  999.0,  999.0,  999.0,  999.0,  999.0,  999.0,  999.0,  999.0,  999.0,  999.0,  999.0,  999.0,  999.0,  999.0,  999.0,  999.0,  999.0,  999.0,  999.0,  999.0,  999.0,  999.0,  999.0,  999.0,  999.0,  999.0,  999.0,  999.0,  999.0,  999.0,  999.0,  999.0
2020/04/13 03:50,  999.0,  -12.7,  -17.2,  -16.9,  999.0,  999.0,  999.0,  999.0,  999.0,   17.0,   15.7,    0.5,    3.5,    3.2,    4.9,  999.0,  999.0,  999.0,  -26.6,  -24.4,  -22.0,  -19.5,  -19.2,  -18.5,  -19.2,  -17.5,  -16.4,  -15.4,  -15.7,  -16.5,  -16.1,  -14.4,  -12.7,  -12.2,  -10.8,   -9.2,   -5.7,   -6.4,   -4.1,   -2.7,   -3.2,   -1.3,   -1.4,  999.0,  999.0,  999.0,  999.0,  999.0,  999.0,  999.0,  999.0,  999.0,  999.0,  999.0,  999.0,  999.0,  999.0,  999.0,  999.0,  999.0,  999.0,  999.0,  999.0,  999.0,  999.0,  999.0,  999.0,  999.0,  999.0,  999.0,  999.0,  999.0,  999.0,  999.0,  999.0,  999.0,  999.0,  999.0,  999.0,  999.0
2020/04/13 04:00,  999.0,  -11.5,  999.0,  -14.9,  999.0,  999.0,   23.3,   21.3,   19.8,   17.7,   16.2,   15.0,   14.2,   12.6,   12.3,  999.0,  999.0,  -25.6,  -24.6,  -23.0,  -22.0,  -21.5,  -20.8,  -20.4,  -19.6,  -18.6,  -18.1,  -16.5,  -15.8,  -15.0,  -15.3,  -14.6,  -13.9,  -14.0,  -12.8,  -12.1,  -11.1,   -9.9,   -8.6,   -7.5,   -7.0,   -5.4,   -5.3,   -2.4,   -1.4,   -0.8,  999.0,  999.0,  999.0,  999.0,  999.0,  999.0,  999.0,  999.0,  999.0,  999.0,  999.0,  999.0,  999.0,  999.0,  999.0,  999.0,  999.0,  999.0,  999.0,  999.0,  999.0,  999.0,  999.0,  999.0,  999.0,  999.0,  999.0,  999.0,  999.0,  999.0,  999.0,  999.0,  999.0,  999.0
2020/04/13 04:10,  999.0,  -13.4,  -11.8,    1.4,    0.5,   12.1,   10.7,   25.1,   19.5,   10.5,   19.2,   18.1,   16.9,   15.8,    2.0,  999.0,  999.0,  999.0,  -25.2,  -24.4,  -23.4,  -22.5,  -21.9,  -21.4,  -20.2,  -20.6,  -19.7,  -19.1,  -18.3,  -17.7,  -16.5,  -16.1,  -15.0,  -13.8,  -13.4,  -12.9,  -12.3,  -11.1,  -10.8,   -9.9,   -9.5,   -8.8,   -8.1,   -7.0,   -6.1,   -5.7,   -4.3,   -3.8,   -1.9,   -2.7,   -2.6,   -1.8,    0.5,    0.3,    1.2,    1.1,  999.0,  999.0,  999.0,  999.0,  999.0,  999.0,  999.0,  999.0,  999.0,  999.0,  999.0,  999.0,  999.0,  999.0,  999.0,  999.0,  999.0,  999.0,  999.0,  999.0,  999.0,  999.0,  999.0,  999.0
2020/04/13 04:20,  999.0,   -9.7,   -9.2,   -9.9,   -6.5,  -12.5,   -7.3,  -14.4,   -8.7,    2.7,    1.7,    9.0,   -2.6,  -15.2,  -26.8,  -27.6,  -27.5,  -27.9,  -26.5,  -25.7,  -24.7,  -23.9,  -22.7,  -23.0,  -21.8,  -20.7,  -19.7,  -18.3,  -16.7,  -15.3,  -14.0,  -12.9,  -12.3,  -11.6,  -10.6,  -11.0,  -10.0,   -9.7,   -8.9,   -8.7,   -8.1,   -7.0,   -6.9,   -5.1,   -4.7,   -4.5,   -3.4,   -2.6,   -1.8,   -1.0,    0.5,    1.1,    3.0,    3.9,    5.2,    5.3,  999.0,    6.7,    7.9,    8.5,    9.0,    8.5,    8.0,  999.0,  999.0,  999.0,  999.0,  999.0,  999.0,  999.0,  999.0,  999.0,  999.0,  999.0,  999.0,  999.0,  999.0,  999.0,  999.0,  999.0
2020/04/13 04:30,   -9.5,  -12.1,  -11.5,  999.0,  -13.6,    0.7,   -1.4,    2.1,  999.0,    6.9,   -5.9,    2.6,    1.8,   -4.3,  999.0,  -24.5,  -23.6,  -22.2,  -20.6,  -19.8,  -19.5,  -18.8,  -17.1,  -16.5,  -15.7,  -15.9,  -16.0,  -14.9,  999.0,  999.0,  999.0,  999.0,  999.0,  999.0,  999.0,  999.0,  999.0,  999.0,  999.0,  999.0,  999.0,  999.0,  999.0,  999.0,   -0.4,    0.6,    1.7,    2.6,    3.1,    3.5,    4.9,    4.8,    5.0,  999.0,    5.1,  999.0,  999.0,  999.0,  999.0,    4.4,    5.3,    4.6,    4.1,    3.4,    3.1,    2.6,  999.0,  999.0,  999.0,  999.0,  999.0,  999.0,  999.0,  999.0,  999.0,  999.0,  999.0,  999.0,  999.0,  999.0
2020/04/13 04:40,  999.0,   -8.3,   -9.0,  -11.1,  -12.7,  -14.4,  -16.1,  999.0,  999.0,  999.0,  999.0,   19.8,   19.4,  999.0,  999.0,  -24.3,  -24.0,  -22.9,  -21.7,  -20.5,  -19.8,  -18.6,  -17.6,  -17.7,  -16.9,  -16.6,  -16.1,  -15.7,  -15.7,  -14.9,  -13.8,  -13.4,  -13.5,  -12.9,  -12.3,  -11.5,  -11.0,   -9.7,   -8.3,   -8.4,   -7.8,   -6.0,   -6.7,  999.0,   -2.8,    0.5,    1.1,    1.0,    0.7,    0.6,    1.0,    2.1,    1.9,    3.0,  999.0,  999.0,  999.0,  999.0,  999.0,  999.0,  999.0,  999.0,  999.0,  999.0,  999.0,  999.0,  999.0,  999.0,  999.0,  999.0,  999.0,  999.0,  999.0,  999.0,  999.0,  999.0,  999.0,  999.0,  999.0,  999.0
2020/04/13 04:50,   -7.7,   -9.6,   -9.0,  -10.0,  -12.3,  -13.0,  999.0,  -13.8,  999.0,  999.0,  999.0,   -0.3,  999.0,  999.0,  -10.5,  -18.8,  -28.0,  -27.4,  -26.6,  -25.2,  -24.0,  -23.3,  -22.9,  -22.1,  -21.4,  -20.4,  -19.7,  -18.4,  -17.8,  -16.4,  -15.6,  -15.1,  -13.7,  -12.8,  -12.7,  -10.4,  -10.1,   -9.5,   -8.7,   -8.4,   -8.5,   -8.8,   -7.9,   -7.1,   -6.9,  999.0,  999.0,  999.0,   -6.4,   -5.6,   -4.8,   -3.9,   -2.6,   -1.9,   -0.6,    1.7,  999.0,  999.0,  999.0,  999.0,  999.0,  999.0,  999.0,  999.0,  999.0,  999.0,  999.0,  999.0,  999.0,  999.0,  999.0,  999.0,  999.0,  999.0,  999.0,  999.0,  999.0,  999.0,  999.0,  999.0
2020/04/13 05:00,  999.0,   -8.6,  -10.2,  -11.5,  -12.0,  -15.4,  -17.2,  -17.6,  -13.3,  -16.0,  -18.2,   -2.5,  -15.7,    5.2,  -12.7,  -23.8,  -24.5,  -22.7,  -21.5,  -20.8,  -20.7,  -19.7,  -20.4,  -20.4,  -19.7,  -19.1,  -17.6,  -16.8,  -14.9,  -14.4,  -12.5,  -12.4,  -10.9,  -10.9,  -10.4,   -9.8,  -10.0,  -10.0,   -9.2,   -9.6,   -9.0,   -8.9,   -8.4,   -6.2,   -6.2,   -5.2,   -4.5,   -2.9,    0.3,  999.0,    0.5,    0.7,    1.3,    2.0,    2.6,    2.7,    2.5,    3.2,    2.9,    2.2,    1.6,    3.0,    3.2,    1.5,  999.0,    1.7,    2.0,  999.0,  999.0,  999.0,  999.0,  999.0,  999.0,  999.0,  999.0,  999.0,  999.0,  999.0,  999.0,  999.0
2020/04/13 05:10,  999.0,  -13.7,  -16.4,  -12.7,  -15.0,  -17.4,  -23.6,  -26.5,  -19.3,  -27.1,  -27.9,  -27.6,  -25.0,  -25.3,  999.0,  -20.4,  -20.1,  -18.8,  -17.2,  -17.3,  -15.8,  -15.9,  -15.5,  -15.8,  -15.1,  -15.2,  -15.2,  -15.2,  -15.0,  -15.0,  -14.0,  -12.7,  -12.2,  -11.1,  -10.7,  -10.4,  -10.7,  -10.7,  -10.7,  -10.2,   -9.7,   -9.9,   -9.9,   -8.7,   -7.8,   -7.3,   -7.0,   -5.6,   -4.9,   -4.1,   -2.4,   -1.4,   -0.2,    0.7,    1.1,    1.5,    1.3,    1.4,    1.1,    1.8,    1.7,    1.3,    1.1,    1.1,    0.7,    0.9,   -0.1,   -0.1,  999.0,  999.0,  999.0,  999.0,  999.0,  999.0,  999.0,  999.0,  999.0,  999.0,  999.0,  999.0
2020/04/13 05:20,  999.0,  -15.4,  999.0,  999.0,  999.0,  -20.4,  999.0,  999.0,   -7.3,   15.5,   -8.5,  999.0,  -23.3,  999.0,  999.0,  999.0,  -17.2,  -15.5,  -16.0,  -14.8,  -14.6,  -14.0,  -14.2,  -14.5,  -14.3,  -14.5,  -15.0,  -15.3,  -15.3,  -15.5,  -15.0,  -15.3,  -15.0,  -13.8,  -12.4,  -10.2,   -7.8,   -6.4,   -5.9,   -5.0,   -4.3,   -3.8,   -3.2,   -2.3,   -1.7,   -0.6,    0.5,    1.2,    1.3,    1.5,    2.9,    2.4,    2.8,    3.1,    3.4,    3.6,    3.8,    3.8,    3.7,    3.9,    3.7,    3.2,    3.2,    2.8,    2.9,    2.8,  999.0,    2.9,  999.0,  999.0,  999.0,  999.0,  999.0,  999.0,  999.0,  999.0,  999.0,  999.0,  999.0,  999.0
2020/04/13 05:30,  999.0,  999.0,  999.0,  -17.7,  -17.3,  -19.1,  -20.9,  999.0,  999.0,  -11.4,   -2.7,  999.0,  999.0,  999.0,  999.0,  999.0,  -14.5,  -13.5,  -13.4,  -11.2,  -12.1,  -11.7,  -11.3,  -11.5,  -11.5,  -11.6,  -11.7,  -12.1,  -12.4,  -12.7,  -12.9,  -13.4,  -13.1,  -11.9,  -10.4,   -9.0,   -7.2,   -6.4,   -6.2,   -6.0,   -6.1,   -6.0,   -5.7,   -5.2,   -4.7,   -3.8,   -2.9,   -2.1,   -1.5,   -1.0,   -0.1,    0.1,    0.3,  999.0,  999.0,   -1.3,  999.0,  999.0,  999.0,  999.0,  999.0,  999.0,  999.0,  999.0,  999.0,  999.0,  999.0,  999.0,  999.0,  999.0,  999.0,  999.0,  999.0,  999.0,  999.0,  999.0,  999.0,  999.0,  999.0,  999.0
2020/04/13 05:40,  999.0,  -15.7,  -14.9,  -16.8,  -20.1,  -20.1,  999.0,  -18.5,  -19.4,  999.0,  -19.6,   -8.1,  999.0,  999.0,  -16.1,  -13.8,  -13.9,  -12.6,  -12.0,  -11.2,  -11.7,  -10.6,  -11.1,  -11.0,  -11.2,  -10.6,  -10.8,  -10.6,  -10.1,   -9.9,   -9.5,   -9.4,   -9.3,   -8.3,   -6.5,   -4.9,   -3.7,   -2.1,   -0.4,   -1.0,    0.3,   -0.9,   -2.2,   -2.2,   -2.4,   -2.4,   -2.4,   -2.1,   -1.9,   -1.7,   -1.6,   -1.4,   -1.4,   -1.4,   -1.5,   -1.6,   -1.7,   -1.7,   -1.5,   -1.7,   -2.1,   -1.9,   -1.9,   -2.8,   -3.0,   -2.7,   -3.8,   -3.5,  999.0,  999.0,  999.0,  999.0,  999.0,  999.0,  999.0,  999.0,  999.0,  999.0,  999.0,  999.0
2020/04/13 05:50,  999.0,  -13.6,  999.0,  -13.6,  -15.2,  -18.4,  -19.6,  -19.6,  -19.7,  -19.9,  -20.4,  -19.3,  -18.6,  -17.1,  -16.9,  -15.5,  -12.9,  -12.7,  -13.0,  -11.8,  -10.3,   -9.7,   -9.2,   -7.5,   -6.9,   -7.1,   -5.4,   -6.7,   -5.4,   -3.9,   -2.3,   -2.2,   -3.5,   -3.2,   -2.7,   -2.7,   -2.2,   -1.5,   -1.3,   -1.6,   -2.1,   -2.3,   -2.6,   -2.6,   -2.8,   -3.0,   -3.1,   -3.3,   -4.1,   -3.8,   -3.7,   -3.9,   -3.7,   -3.7,   -3.4,   -3.4,   -3.3,   -3.9,   -3.9,   -4.3,   -4.2,   -4.4,   -5.2,   -5.5,  999.0,  999.0,  999.0,  999.0,  999.0,  999.0,  999.0,  999.0,  999.0,  999.0,  999.0,  999.0,  999.0,  999.0,  999.0,  999.0
2020/04/13 06:00,  -11.1,  -12.3,  -13.1,  -14.5,  -15.1,  -16.4,  -17.7,  -19.3,  -19.3,  -19.6,  -19.3,  -18.3,  -16.4,  -15.2,  -13.6,  -11.5,  -10.7,  -10.7,  -10.8,   -9.4,   -9.4,   -9.0,   -8.9,   -8.8,   -8.2,   -7.4,   -6.3,   -5.3,   -4.9,   -3.4,   -3.9,   -4.5,   -3.8,   -3.3,   -3.1,   -3.2,   -2.8,   -3.6,   -4.4,   -5.2,   -6.3,   -6.3,   -6.3,   -6.1,   -6.0,   -5.8,   -5.6,   -5.5,   -5.7,   -5.8,   -5.7,   -5.1,   -4.5,   -4.6,   -4.1,   -4.2,   -4.2,   -4.5,   -5.2,   -5.1,   -4.2,   -6.1,  999.0,  999.0,  999.0,  999.0,  999.0,  999.0,  999.0,  999.0,  999.0,  999.0,  999.0,  999.0,  999.0,  999.0,  999.0,  999.0,  999.0,  999.0
2020/04/13 06:10,  -15.1,  -19.2,  -19.8,  -19.9,  -22.2,  -20.6,  -19.9,  -17.9,  -16.7,  -16.0,  -13.0,  -12.6,  -12.3,  -14.3,  -10.5,  -11.8,   -8.3,  -11.1,   -4.5,   -6.0,   -2.5,   -2.3,   -1.3,    1.0,    1.9,    2.2,    3.1,    2.8,    2.1,    0.8,   -0.4,   -2.4,   -3.9,   -4.7,   -5.0,   -4.9,   -5.1,   -5.6,   -6.0,   -6.3,   -6.7,   -6.5,   -6.4,   -6.4,   -6.1,   -6.9,   -6.1,   -5.8,   -5.3,   -5.3,   -5.1,   -5.4,   -5.2,   -5.2,   -5.4,   -5.1,   -5.2,   -5.5,   -5.6,   -5.9,   -6.4,   -6.6,   -5.9,  999.0,  999.0,  999.0,  999.0,  999.0,  999.0,  999.0,  999.0,  999.0,  999.0,  999.0,  999.0,  999.0,  999.0,  999.0,  999.0,  999.0
2020/04/13 06:20,  999.0,   -4.3,   -7.0,   -5.8,  -20.6,  -22.3,  -23.8,  -20.5,   -4.7,    3.3,    6.2,  -14.9,  -11.8,  -11.5,  -11.4,  -11.8,  -13.0,  -12.5,   -9.7,  -11.5,   -8.7,   -8.0,   -7.2,   -7.1,   -5.0,   -0.3,   -1.6,   -1.2,   -1.9,   -2.2,   -3.5,   -4.5,   -3.8,   -4.0,   -2.1,   -1.8,   -1.8,   -5.5,   -3.6,   -4.1,   -4.7,   -5.7,   -6.6,   -7.0,   -8.0,   -8.6,   -8.0,   -7.9,   -7.4,   -7.7,   -7.0,   -6.9,   -5.2,   -4.7,   -4.5,   -4.2,   -4.4,   -4.5,   -4.9,   -4.8,   -4.8,   -5.1,   -6.2,   -6.7,   -7.2,   -7.7,   -7.4,  999.0,  999.0,  999.0,  999.0,  999.0,  999.0,  999.0,  999.0,  999.0,  999.0,  999.0,  999.0,  999.0
2020/04/13 06:30,  999.0,  -15.0,  -15.2,  -15.2,  -17.6,  -17.2,  -19.5,  -18.2,  -17.7,  999.0,  999.0,  999.0,  999.0,  -16.9,  -13.3,  -11.0,  -11.0,  -10.9,   -8.0,   -4.5,   -4.0,   -2.3,   -0.0,   -2.5,   -3.7,   -2.1,   -1.4,   -0.3,    1.2,    0.2,   -1.3,   -1.5,   -1.1,   -3.3,   -1.4,   -1.5,   -1.4,   -0.4,   -0.6,   -1.5,   -2.1,   -2.8,   -4.3,   -6.4,   -7.4,   -7.8,   -7.0,   -5.6,   -4.6,   -3.5,   -2.9,   -2.5,   -2.7,   -1.7,   -2.8,   -2.3,   -3.5,   -4.4,   -5.3,   -6.3,   -7.2,   -8.3,  -10.0,  -11.2,  -11.9,  -12.2,  -12.1,  -12.5,  -12.6,  -14.0,  999.0,  999.0,  999.0,  999.0,  999.0,  999.0,  999.0,  999.0,  999.0,  999.0
2020/04/13 06:40,  999.0,  -13.7,  -15.2,  -18.1,  -20.2,  -20.5,  -21.1,  -22.2,  -15.3,  -13.2,  -17.3,  -10.7,  -14.0,  999.0,  -12.4,  -10.1,  -11.5,   -9.9,   -9.7,   -9.7,   -9.7,   -8.7,   -7.6,   -7.9,   -7.4,   -6.8,   -6.2,   -6.0,   -5.9,   -5.5,   -5.2,   -3.3,   -2.6,   -1.6,   -0.9,   -0.6,   -0.0,    0.1,    0.0,    0.6,    0.4,    0.4,   -0.5,   -0.7,   -2.3,   -3.9,   -4.7,   -4.6,   -4.7,   -4.5,   -4.7,   -4.6,   -4.3,   -4.5,   -4.9,   -5.5,   -5.8,   -6.5,   -6.7,   -7.4,   -8.1,   -8.6,   -9.5,  -10.0,  -10.7,  -11.0,  -11.4,  -11.7,  -11.8,  -12.1,  -11.8,  -11.3,  999.0,  999.0,  999.0,  999.0,  999.0,  999.0,  999.0,  999.0
2020/04/13 06:50,  -13.9,  -14.8,  -15.8,  -16.8,  -17.4,  -18.8,  -19.1,  -17.2,  -18.4,  -19.2,  -16.6,  -17.9,  -16.1,  -13.7,  -12.5,  -10.7,  -10.7,   -9.0,   -6.7,   -5.7,   -6.6,   -5.5,   -6.1,   -6.3,   -4.8,   -4.6,   -3.9,   -3.4,   -3.4,   -3.2,   -2.9,   -2.5,   -1.7,   -0.9,   -0.1,    0.4,   -0.2,    0.5,   -0.5,   -1.0,   -0.9,   -2.4,   -3.2,   -3.7,   -4.1,   -3.9,   -3.5,   -3.3,   -2.9,   -2.0,   -1.5,   -1.3,   -1.4,   -2.2,   -2.8,   -3.4,   -4.5,   -4.4,   -5.8,   -8.2,   -9.6,  -10.0,   -9.8,  -10.0,  -10.3,  -10.4,  -10.6,  -11.0,  -10.9,  -10.7,  -10.8,  999.0,  999.0,  999.0,  999.0,  999.0,  999.0,  999.0,  999.0,  999.0
2020/04/13 07:00,  999.0,  -14.7,  -13.4,  -15.4,  -14.7,  -13.9,  -13.5,  -15.5,  -13.0,  -13.6,  999.0,  999.0,  -15.4,  -13.7,  999.0,  -11.3,  -10.2,   -5.5,   -5.4,   -5.4,   -4.2,   -3.1,   -2.4,   -0.7,   -0.4,   -1.4,   -0.6,    1.0,    1.0,    1.5,    1.8,    1.1,    1.4,   -0.1,   -1.0,   -0.9,   -0.1,   -0.8,   -0.9,   -1.0,   -0.6,   -1.7,   -3.9,   -4.3,   -5.6,   -5.8,   -5.1,   -4.3,   -3.7,   -3.5,   -3.4,   -3.3,   -3.1,   -3.0,   -3.0,   -2.6,   -2.4,   -2.3,   -2.3,   -2.8,   -3.9,   -5.5,  999.0,  999.0,  -10.8,  999.0,  999.0,  999.0,  999.0,  999.0,  999.0,  999.0,  999.0,  999.0,  999.0,  999.0,  999.0,  999.0,  999.0,  999.0
2020/04/13 07:10,  999.0,  999.0,   -8.7,   -7.6,   -9.3,   -9.4,   -0.4,    0.5,  999.0,  -17.8,  -16.7,  -13.1,  -11.5,  -11.5,  -10.8,   -9.4,   -7.0,   -6.3,   -6.7,   -5.7,   -5.2,   -3.2,  999.0,    1.6,    3.2,    3.6,    4.5,    4.3,    4.2,    3.8,    3.5,    3.3,    2.8,  999.0,  999.0,  999.0,    0.3,   -0.1,   -0.7,   -1.5,   -1.3,   -2.2,  999.0,  999.0,  999.0,  999.0,  999.0,  999.0,  999.0,  999.0,  999.0,  999.0,  999.0,  999.0,  999.0,  999.0,  999.0,  999.0,  999.0,  999.0,  999.0,   -3.8,   -5.7,   -8.1,   -9.7,  -10.3,  -10.8,  999.0,  999.0,  999.0,  999.0,  999.0,  999.0,  999.0,  999.0,  999.0,  999.0,  999.0,  999.0,  999.0
2020/04/13 07:20,  999.0,  999.0,  999.0,  999.0,  999.0,  999.0,   21.1,   22.6,  999.0,  999.0,  999.0,  999.0,  -13.7,  -12.1,  999.0,  999.0,   -9.2,   -9.4,   -8.3,   -5.6,   -4.5,   -4.5,   -3.3,   -0.4,   -1.6,    1.3,    0.7,    0.8,    1.4,    0.6,    0.2,   -0.0,   -0.7,   -1.0,   -2.3,   -2.1,   -2.7,  999.0,   -4.2,   -4.7,  999.0,  999.0,  999.0,  999.0,  999.0,  999.0,  999.0,  999.0,  999.0,  999.0,  999.0,  999.0,  999.0,   -7.3,   -6.4,   -5.6,   -5.8,   -4.8,   -4.9,   -4.4,   -3.8,  999.0,   -3.9,   -5.2,   -6.9,   -9.1,  999.0,  999.0,  999.0,  999.0,  999.0,  999.0,  999.0,  999.0,  999.0,  999.0,  999.0,  999.0,  999.0,  999.0
2020/04/13 07:30,  999.0,  -16.6,  -17.1,  -16.6,  -17.2,  -17.6,  -17.9,  999.0,  -17.8,  -16.1,  -12.8,  -12.2,  -11.0,   -8.8,   -8.3,  999.0,   -5.9,   -5.8,   -4.1,   -3.5,   -2.2,   -0.3,   -0.7,    0.7,    0.1,    0.1,   -0.0,   -0.2,   -0.0,    0.0,   -0.0,   -0.5,   -0.9,   -1.8,   -2.2,   -4.1,   -4.3,   -4.7,   -7.0,   -4.7,  999.0,  999.0,  999.0,  999.0,  999.0,  999.0,  999.0,  999.0,  999.0,  999.0,  999.0,  999.0,  999.0,  999.0,  999.0,  999.0,  999.0,  999.0,  999.0,  999.0,  999.0,  999.0,  999.0,  999.0,  999.0,  999.0,  999.0,  999.0,  999.0,  999.0,  999.0,  999.0,  999.0,  999.0,  999.0,  999.0,  999.0,  999.0,  999.0,  999.0
2020/04/13 07:40,  999.0,  -16.2,  -17.7,  -20.2,  -21.2,  -19.9,  -23.2,  -21.0,  -18.5,  -16.9,  -14.7,   -9.8,   -9.2,   -7.2,  999.0,   -4.8,   -2.2,   -2.5,   -2.2,   -1.3,   -0.8,    1.2,    1.1,    0.8,    0.0,    0.1,   -0.1,   -0.0,    0.1,    0.0,   -0.1,   -0.5,   -0.5,  999.0,   -2.3,  999.0,   -2.7,  999.0,  999.0,  999.0,  999.0,   -6.1,  999.0,  999.0,  999.0,  999.0,  999.0,  999.0,  999.0,  999.0,  999.0,  999.0,  999.0,  999.0,  999.0,  999.0,  999.0,  999.0,  999.0,  999.0,  999.0,  999.0,  999.0,  999.0,  999.0,  999.0,  999.0,  999.0,  999.0,  999.0,  999.0,  999.0,  999.0,  999.0,  999.0,  999.0,  999.0,  999.0,  999.0,  999.0
2020/04/13 07:50,  999.0,  -17.0,  -18.5,  -19.4,  -20.6,  -21.0,  -20.8,  -18.4,  -17.1,  -14.3,  -11.9,   -9.2,  999.0,  999.0,  999.0,  999.0,   -4.0,   -1.8,   -1.6,   -0.6,    0.3,    0.4,    0.3,    0.3,   -0.0,  999.0,    1.6,    1.2,    2.5,    1.6,    1.2,    0.8,    0.3,   -0.7,   -1.6,   -2.1,   -2.0,    0.2,  999.0,  999.0,    0.1,   -2.9,  999.0,  999.0,  999.0,  999.0,  999.0,  999.0,  999.0,  999.0,  999.0,  999.0,  999.0,  999.0,  999.0,  999.0,  999.0,  999.0,  999.0,  999.0,  999.0,  999.0,  999.0,  999.0,  999.0,  999.0,  999.0,  999.0,  999.0,  999.0,  999.0,  999.0,  999.0,  999.0,  999.0,  999.0,  999.0,  999.0,  999.0,  999.0
2020/04/13 08:00,  999.0,  999.0,  -14.5,  -16.6,  -17.4,  -17.6,  -17.4,  -17.4,  -15.3,  -13.5,  -12.8,  -11.7,  999.0,  999.0,  999.0,   -4.0,   -2.2,   -2.1,   -1.9,   -1.1,   -0.9,    0.1,    1.2,    1.5,    1.4,    1.4,    0.6,    0.7,    0.7,    0.7,    0.7,    1.5,    1.5,    1.6,    1.9,    2.7,    3.2,    3.6,    3.4,    2.2,  999.0,  999.0,  999.0,  999.0,  999.0,  999.0,  999.0,  999.0,  999.0,  999.0,  999.0,  999.0,  999.0,  999.0,  999.0,  999.0,  999.0,  999.0,  999.0,  999.0,  999.0,  999.0,  999.0,  999.0,  999.0,  999.0,  999.0,  999.0,  999.0,  999.0,  999.0,  999.0,  999.0,  999.0,  999.0,  999.0,  999.0,  999.0,  999.0,  999.0
2020/04/13 08:10,  999.0,  -11.0,  999.0,  -12.6,  -11.3,  -12.9,  -11.3,  -13.4,  -11.6,  -11.2,   -9.5,   -7.6,   -7.2,  999.0,  999.0,   -2.6,   -2.1,   -2.8,   -1.4,    0.2,   -0.5,   -0.2,    0.8,    1.3,    1.8,    2.8,    3.2,    4.4,    4.9,  999.0,    4.7,  999.0,  999.0,  999.0,  999.0,  999.0,  999.0,  999.0,  999.0,  999.0,  999.0,  999.0,  999.0,  999.0,  999.0,  999.0,  999.0,  999.0,  999.0,  999.0,  999.0,  999.0,  999.0,  999.0,  999.0,  999.0,  999.0,  999.0,  999.0,  999.0,  999.0,  999.0,  999.0,  999.0,  999.0,  999.0,  999.0,  999.0,  999.0,  999.0,  999.0,  999.0,  999.0,  999.0,  999.0,  999.0,  999.0,  999.0,  999.0,  999.0
2020/04/13 08:20,  999.0,  999.0,  999.0,  999.0,  999.0,  999.0,  999.0,  -13.0,  -10.2,   -9.7,   -8.4,   -7.7,  999.0,   -4.7,   -3.3,   -2.8,   -2.2,   -1.6,    0.0,   -0.6,   -0.0,   -0.1,    0.6,    1.2,    1.4,    1.5,    2.0,  999.0,  999.0,  999.0,  999.0,  999.0,  999.0,  999.0,  999.0,  999.0,  999.0,  999.0,  999.0,  999.0,  999.0,  999.0,  999.0,  999.0,  999.0,  999.0,  999.0,  999.0,  999.0,  999.0,  999.0,  999.0,  999.0,  999.0,  999.0,  999.0,  999.0,  999.0,  999.0,  999.0,  999.0,  999.0,  999.0,  999.0,  999.0,  999.0,  999.0,  999.0,  999.0,  999.0,  999.0,  999.0,  999.0,  999.0,  999.0,  999.0,  999.0,  999.0,  999.0,  999.0
2020/04/13 08:30,  999.0,  999.0,  999.0,  -11.9,  999.0,  -14.4,  -13.2,  -11.8,  -10.8,   -9.7,   -7.9,   -9.0,   -2.8,   -3.3,   -4.1,   -4.1,   -2.5,   -3.0,   -2.4,   -2.1,   -1.6,  999.0,  999.0,    1.1,    0.5,    0.3,    0.3,    0.5,    0.0,    0.1,   -0.0,  999.0,    0.2,  999.0,  999.0,  999.0,  999.0,  999.0,  999.0,  999.0,  999.0,  999.0,  999.0,  999.0,  999.0,  999.0,  999.0,  999.0,  999.0,  999.0,  999.0,  999.0,  999.0,  999.0,  999.0,  999.0,  999.0,  999.0,  999.0,  999.0,  999.0,  999.0,  999.0,  999.0,  999.0,  999.0,  999.0,  999.0,  999.0,  999.0,  999.0,  999.0,  999.0,  999.0,  999.0,  999.0,  999.0,  999.0,  999.0,  999.0
2020/04/13 08:40,  999.0,   -9.7,  -12.4,  -10.3,  -16.3,  -13.2,  -13.7,  -13.3,   -9.3,  -12.5,  -11.2,   -9.4,   -9.7,   -6.7,   -6.3,   -5.2,   -2.3,   -6.0,   -7.8,   -7.3,   -5.2,   -4.4,   -2.9,   -1.3,   -2.3,    1.1,    0.3,    1.0,  999.0,   -0.1,   -0.1,    0.0,    0.1,  999.0,  999.0,  999.0,  999.0,  999.0,  999.0,  999.0,  999.0,  999.0,  999.0,  999.0,  999.0,  999.0,  999.0,  999.0,  999.0,  999.0,  999.0,  999.0,  999.0,  999.0,  999.0,  999.0,  999.0,  999.0,  999.0,  999.0,  999.0,  999.0,  999.0,  999.0,  999.0,  999.0,  999.0,  999.0,  999.0,  999.0,  999.0,  999.0,  999.0,  999.0,  999.0,  999.0,  999.0,  999.0,  999.0,  999.0
2020/04/13 08:50,  999.0,   -9.1,   -9.5,  999.0,  999.0,  -14.3,  999.0,  -12.4,  999.0,  999.0,  999.0,   -5.8,   -6.9,   -4.2,   -4.0,   -3.5,   -3.9,   -3.9,   -3.6,   -3.4,   -3.6,   -3.2,   -2.3,   -0.7,    2.0,    1.5,    1.4,    0.4,    1.7,  999.0,  999.0,  999.0,  999.0,  999.0,  999.0,  999.0,  999.0,  999.0,  999.0,  999.0,  999.0,  999.0,  999.0,  999.0,  999.0,  999.0,  999.0,  999.0,  999.0,  999.0,  999.0,  999.0,   -3.5,   -4.1,   -4.6,   -4.4,   -3.5,   -2.6,   -2.1,   -2.9,   -4.2,   -5.6,   -7.0,   -7.7,   -7.9,   -8.6,   -9.7,  -10.8,  999.0,  999.0,  999.0,  999.0,  999.0,  999.0,  999.0,  999.0,  999.0,  999.0,  999.0,  999.0
2020/04/13 09:00,  999.0,  999.0,  999.0,  999.0,  -11.2,  -13.9,  999.0,  -12.5,  999.0,  999.0,  999.0,   -6.9,   -5.4,   -5.2,   -3.9,   -3.6,   -3.1,   -2.8,   -2.8,   -1.9,   -1.0,   -0.4,    0.4,    1.7,    2.8,    2.1,    0.1,    0.1,  999.0,  999.0,    0.3,    1.7,  999.0,    4.8,    4.8,    3.9,    2.4,    0.5,   -1.4,   -3.0,   -4.6,   -6.1,   -6.0,   -4.9,   -3.9,   -3.4,   -3.1,   -2.8,   -2.6,   -2.9,   -3.2,   -3.4,   -3.4,   -2.8,   -2.5,   -2.6,   -2.5,   -2.9,   -3.5,   -4.4,   -5.7,   -7.0,   -8.6,   -9.8,  -10.5,  -11.3,  -12.1,  -12.8,  -12.8,  999.0,  999.0,  999.0,  999.0,  999.0,  999.0,  999.0,  999.0,  999.0,  999.0,  999.0
2020/04/13 09:10,  999.0,   -7.2,  -10.3,  -11.5,  -12.7,  -14.2,  -14.2,  -14.1,  -12.8,  -11.7,  999.0,   -6.3,   -6.0,   -4.8,   -4.0,   -3.6,   -2.9,   -1.8,   -0.8,   -1.6,   -0.3,    1.3,    4.1,    3.1,    4.2,    3.0,    1.5,  999.0,  999.0,    1.3,    1.3,    3.4,    2.4,    3.2,    3.8,    3.4,    1.8,   -0.3,   -2.3,   -3.9,   -5.3,   -6.7,   -6.5,   -5.0,   -3.7,   -2.9,   -2.2,   -1.6,   -1.1,   -1.0,   -0.9,   -0.7,   -0.4,   -0.3,   -0.8,   -1.6,   -2.8,   -4.1,   -5.7,   -7.6,   -9.9,  -10.8,  -11.9,  -12.3,  -12.6,  -13.0,  -13.1,  -12.4,  -12.4,  999.0,  999.0,  999.0,  999.0,  999.0,  999.0,  999.0,  999.0,  999.0,  999.0,  999.0
2020/04/13 09:20,  999.0,  999.0,  999.0,  999.0,  999.0,  -13.2,  -14.9,  -14.3,  -12.7,  -12.7,   -9.9,   -9.8,  999.0,   -7.1,   -4.9,   -5.0,   -4.1,   -4.9,   -3.7,   -3.6,   -2.5,   -1.1,   -1.2,   -1.1,    0.3,    0.6,   -0.0,    0.6,    0.7,    0.3,    1.0,    1.0,    1.7,    2.5,    2.5,    0.6,   -1.0,   -2.6,   -4.1,   -3.8,   -3.2,   -2.5,   -0.8,   -0.7,   -0.4,   -0.7,   -0.9,   -1.4,   -1.8,   -2.4,   -2.4,   -2.9,   -4.7,   -7.2,   -9.8,  -10.8,  999.0,  -12.7,  -12.7,  -13.0,  -13.2,  -13.2,  -13.4,  -12.8,  -12.2,  -13.8,  999.0,  999.0,  999.0,  999.0,  999.0,  999.0,  999.0,  999.0,  999.0,  999.0,  999.0,  999.0,  999.0,  999.0
2020/04/13 09:30,  999.0,   -4.7,   -5.7,   -5.9,   -6.6,  -10.0,   -7.3,  -10.1,  -12.9,  -11.5,  -10.5,  -10.7,   -7.7,  999.0,   -6.1,   -5.6,   -5.2,   -4.9,   -4.6,   -4.0,   -3.2,   -2.7,   -1.5,   -0.1,    1.3,    1.0,    1.3,    1.9,    1.2,    2.2,    1.6,    0.8,   -0.2,   -1.0,   -1.1,   -0.4,   -0.1,    0.0,    0.2,    0.5,    0.1,    0.1,   -0.7,   -1.4,   -3.0,   -3.3,   -4.1,   -4.7,   -5.1,   -5.9,   -6.5,   -7.2,   -7.8,   -8.8,   -9.7,  -10.7,  -10.7,  -11.2,  -11.4,  -11.4,  -11.3,  -11.6,  -11.6,  999.0,  999.0,  999.0,  999.0,  999.0,  999.0,  999.0,  999.0,  999.0,  999.0,  999.0,  999.0,  999.0,  999.0,  999.0,  999.0,  999.0
2020/04/13 09:40,   -4.1,   -5.5,   -7.1,   -7.9,   -9.8,   -9.3,  999.0,  999.0,  999.0,  999.0,  999.0,   -8.9,  999.0,  999.0,  999.0,  999.0,   -3.6,   -3.4,   -2.7,   -2.2,   -0.4,    0.4,    1.2,    2.3,    3.2,    3.6,    4.1,    3.9,    3.3,    2.1,    0.4,   -1.2,   -1.8,   -1.6,   -1.1,   -0.9,   -0.9,   -1.0,   -1.2,   -1.5,   -1.8,   -2.0,   -2.2,   -2.4,   -2.1,   -1.9,   -2.0,   -2.4,   -3.4,   -4.6,   -6.3,   -7.6,   -8.2,   -9.0,   -9.9,  -10.8,  -11.5,  -11.9,  -12.2,  -12.5,  -12.9,  -13.2,  -13.1,  -13.1,  -13.1,  -12.8,  -12.6,  -12.9,  -12.8,  999.0,  -12.8,  999.0,  999.0,  999.0,  999.0,  999.0,  999.0,  999.0,  999.0,  999.0
2020/04/13 09:50,   -4.8,   -5.2,   -3.7,   -4.7,   -5.0,   -5.7,   -6.0,   -6.2,   -7.9,   -6.3,   -8.1,   -8.2,   -6.9,   -7.0,   -6.2,   -5.7,   -4.7,   -3.7,   -2.8,   -2.3,   -2.1,   -1.4,   -0.9,   -0.3,    0.5,    1.1,    2.2,    2.8,    2.7,    2.2,    1.4,    0.1,   -1.4,   -3.0,   -3.2,   -3.8,   -3.0,   -2.8,   -2.0,   -2.1,   -1.2,   -1.1,   -1.1,   -1.7,   -2.4,   -3.6,   -4.7,   -6.0,   -6.3,   -7.3,   -7.5,   -8.0,   -8.5,   -9.1,  -10.0,  -10.8,  -11.7,  -12.2,  -12.7,  -13.0,  -13.0,  -13.0,  -13.0,  -12.5,  -12.2,  -12.7,  -12.6,  -13.1,  -12.7,  -12.3,  999.0,  999.0,  999.0,  999.0,  999.0,  999.0,  999.0,  999.0,  999.0,  999.0
2020/04/13 10:00,  999.0,   -2.2,   -2.5,   -2.5,   -3.1,   -3.6,   -4.4,   -4.4,  999.0,  999.0,   -6.0,  999.0,  999.0,   -7.0,   -6.5,   -6.1,   -5.3,   -4.5,   -3.5,   -3.0,   -2.5,   -2.0,   -1.3,   -0.8,   -0.5,   -0.4,    0.7,    1.0,    1.0,    0.7,   -0.6,   -2.1,   -3.7,   -4.5,   -4.4,   -3.7,   -2.8,   -2.1,   -1.7,   -1.7,   -2.1,   -3.1,   -3.5,   -3.7,   -4.0,   -4.6,   -5.5,   -6.5,   -7.2,   -7.7,   -8.2,   -8.6,   -8.7,   -8.9,   -9.5,  -10.2,  -10.9,  -11.5,  -12.5,  -12.1,  -12.7,  -12.5,  999.0,  -12.7,  999.0,  999.0,  999.0,  999.0,  999.0,  999.0,  999.0,  999.0,  999.0,  999.0,  999.0,  999.0,  999.0,  999.0,  999.0,  999.0
2020/04/13 10:10,  999.0,   -1.1,   -3.3,   -3.7,   -3.7,   -4.3,   -5.0,  999.0,   -6.9,   -6.7,  999.0,  999.0,  999.0,   -6.9,   -6.6,   -6.0,   -5.4,   -4.6,   -3.6,   -2.5,   -1.4,   -1.1,   -1.1,   -0.7,   -0.1,    0.5,    1.1,    1.1,    0.3,   -1.3,   -2.6,   -3.7,   -4.3,   -4.2,   -3.4,   -2.9,   -2.3,   -2.0,   -1.9,   -2.4,   -3.2,   -3.8,   -4.2,   -4.7,   -5.0,   -5.4,   -5.6,   -5.8,   -6.0,   -6.3,   -6.7,   -6.6,   -6.5,   -6.7,   -7.0,   -7.5,   -8.0,   -8.2,   -8.5,  999.0,  999.0,  999.0,  999.0,  999.0,  999.0,  999.0,  999.0,  999.0,  999.0,  999.0,  999.0,  999.0,  999.0,  999.0,  999.0,  999.0,  999.0,  999.0,  999.0,  999.0
2020/04/13 10:20,  999.0,   -3.4,   -4.5,   -4.9,   -5.1,   -5.4,   -6.2,   -6.3,  999.0,   -7.2,  999.0,  999.0,   -7.8,   -7.6,   -7.2,   -6.9,   -6.1,   -4.9,   -3.3,   -2.1,   -0.9,   -0.5,   -0.5,   -0.6,   -0.3,    0.2,    0.3,    0.1,   -0.9,   -1.6,   -2.1,   -2.6,   -3.1,   -3.3,   -3.3,   -3.2,   -3.0,   -2.6,   -2.4,   -2.4,   -2.3,   -2.5,   -2.7,   -3.0,   -3.6,   -4.4,   -5.3,   -6.0,   -6.4,   -6.8,   -7.2,   -7.4,   -7.5,   -7.3,   -7.0,   -6.8,   -6.9,   -7.1,   -7.3,   -8.2,   -9.3,  -10.1,  -10.3,  -10.6,  -11.0,  999.0,  999.0,  999.0,  999.0,  999.0,  999.0,  999.0,  999.0,  999.0,  999.0,  999.0,  999.0,  999.0,  999.0,  999.0
2020/04/13 10:30,   -2.0,   -2.9,   -3.4,   -4.6,   -5.7,   -6.5,   -6.8,   -6.1,  999.0,   -7.7,  999.0,  999.0,   -6.7,   -6.9,   -6.7,   -6.2,   -5.2,   -3.5,   -2.3,   -2.0,   -1.2,   -0.5,   -0.3,   -0.7,   -0.4,   -0.1,   -0.1,    0.0,   -0.1,   -0.3,   -0.1,   -0.1,   -0.5,   -0.7,   -1.2,   -1.5,   -1.8,   -1.9,   -2.0,   -2.0,   -2.1,   -2.2,   -2.4,   -2.7,   -3.1,   -3.7,   -4.3,   -4.7,   -5.0,   -5.1,   -5.5,   -5.9,   -6.2,   -6.6,   -6.8,   -7.0,   -7.4,   -8.0,   -8.3,   -8.6,   -9.2,   -9.9,  -10.2,  -10.2,  -10.5,  999.0,  999.0,  999.0,  999.0,  999.0,  999.0,  999.0,  999.0,  999.0,  999.0,  999.0,  999.0,  999.0,  999.0,  999.0
2020/04/13 10:40,  999.0,  999.0,   -2.6,   -3.9,   -4.8,   -5.0,   -5.3,   -5.5,  999.0,   -5.4,   -5.2,  999.0,   -6.2,   -5.8,   -5.7,   -5.2,   -4.2,   -3.7,   -3.0,   -2.3,   -1.8,   -1.5,   -1.8,   -1.8,   -1.6,   -1.3,   -1.3,   -1.3,   -1.2,   -1.2,   -1.1,   -1.2,   -1.4,   -1.8,   -1.8,   -2.0,   -2.4,   -2.4,   -2.3,   -2.2,   -2.1,   -2.2,   -2.5,   -3.0,   -3.3,   -3.5,   -3.7,   -4.3,   -5.2,   -5.9,   -6.5,   -6.9,   -7.2,   -7.4,   -7.6,   -7.5,   -7.5,   -7.7,   -8.4,   -9.0,   -9.4,   -9.7,   -9.9,  -10.0,   -9.7,   -9.9,  -10.2,  -10.3,  999.0,  999.0,  999.0,  999.0,  999.0,  999.0,  999.0,  999.0,  999.0,  999.0,  999.0,  999.0
2020/04/13 10:50,  999.0,  999.0,   -3.4,   -4.6,   -5.1,   -5.1,   -6.0,  999.0,  999.0,   -5.5,   -5.4,  999.0,   -5.7,   -5.1,   -4.4,   -4.5,   -4.5,   -4.7,   -4.5,   -3.6,   -2.7,   -2.3,   -2.1,   -1.5,   -1.3,   -1.3,   -1.2,   -1.1,   -1.1,   -1.0,   -0.9,   -0.7,   -0.5,   -0.4,   -0.3,   -0.7,   -1.2,   -1.8,   -2.2,   -2.5,   -2.6,   -2.5,   -2.8,   -3.3,   -4.0,   -4.7,   -5.4,   -6.4,   -7.0,   -7.4,   -7.4,   -7.4,   -7.5,   -7.5,   -7.7,   -7.8,   -7.8,   -7.9,   -8.1,   -8.9,   -9.7,  -10.0,  -10.7,  -10.3,  999.0,  999.0,  999.0,  999.0,  999.0,  999.0,  999.0,  999.0,  999.0,  999.0,  999.0,  999.0,  999.0,  999.0,  999.0,  999.0
2020/04/13 11:00,  999.0,    1.5,    0.9,   -2.7,   -4.2,   -4.6,   -5.9,  999.0,   -5.3,   -5.3,   -5.1,  999.0,   -5.5,   -5.2,   -5.5,   -6.0,   -6.3,   -6.3,   -5.5,   -5.1,   -4.5,   -4.1,   -3.3,   -2.8,   -2.6,   -2.5,   -1.9,   -1.9,   -1.1,   -2.3,   -2.5,   -1.9,   -1.8,   -1.8,   -1.6,   -1.4,   -1.3,   -1.4,   -1.6,   -2.1,   -2.9,   -4.0,   -4.8,   -5.9,   -6.4,   -6.3,   -6.2,   -6.2,   -6.3,   -6.4,   -6.5,   -6.5,   -6.5,   -6.7,   -7.0,   -7.3,   -7.8,   -8.4,   -8.9,   -9.2,   -9.6,   -9.8,  -10.0,  999.0,  999.0,  999.0,  999.0,  999.0,  999.0,  999.0,  999.0,  999.0,  999.0,  999.0,  999.0,  999.0,  999.0,  999.0,  999.0,  999.0
2020/04/13 11:10,    4.1,    2.7,   -0.2,   -1.1,   -2.3,   -2.7,   -3.6,   -3.9,   -3.9,   -4.0,   -3.7,   -4.5,   -4.8,   -5.0,   -5.6,   -6.0,   -6.0,   -6.2,   -6.7,   -6.7,   -6.7,   -6.5,   -5.9,   -5.6,   -5.6,   -5.0,   -4.8,   -4.8,   -4.6,   -4.8,   -3.9,   -4.6,   -5.1,   -5.1,   -5.1,   -5.5,   -5.5,   -5.2,   -5.5,   -5.2,   -5.5,   -5.5,   -5.5,   -5.5,   -5.2,   -5.3,   -5.9,   -6.2,   -6.4,   -6.6,   -6.8,   -6.2,   -6.1,   -5.8,   -6.1,   -6.6,   -7.3,   -8.0,   -8.8,   -9.5,  999.0,  999.0,  999.0,  999.0,  999.0,  999.0,  999.0,  999.0,  999.0,  999.0,  999.0,  999.0,  999.0,  999.0,  999.0,  999.0,  999.0,  999.0,  999.0,  999.0
2020/04/13 11:20,  999.0,    4.2,    1.4,   -0.5,   -1.7,  999.0,  999.0,  999.0,  999.0,  999.0,  999.0,  999.0,  999.0,   -2.9,   -3.9,   -4.2,   -4.2,   -5.1,   -5.9,   -6.2,   -6.3,   -6.6,   -6.6,   -6.5,   -6.8,   -7.2,   -7.5,   -7.2,   -6.8,   -6.9,   -7.0,   -6.9,   -7.1,   -7.2,   -7.4,   -7.2,   -6.6,   -6.1,   -5.7,   -5.3,   -4.9,   -4.8,   -4.8,   -4.8,   -4.7,   -4.9,   -5.0,   -5.5,   -6.2,   -6.8,   -6.7,   -6.0,   -5.8,   -5.8,   -6.0,   -6.7,   -7.2,   -7.8,   -8.4,   -9.0,   -9.5,  -10.3,  999.0,  -10.4,  999.0,  999.0,  999.0,  999.0,  999.0,  999.0,  999.0,  999.0,  999.0,  999.0,  999.0,  999.0,  999.0,  999.0,  999.0,  999.0
2020/04/13 11:30,  999.0,    1.6,   -0.0,   -1.2,   -2.0,   -3.1,   -3.0,   -2.2,  999.0,  999.0,  999.0,  999.0,  999.0,  999.0,   -4.2,   -4.3,   -4.3,   -4.8,   -5.2,   -5.4,   -5.5,   -5.9,   -6.4,   -7.3,   -8.1,   -8.7,   -8.8,   -8.7,   -9.3,   -9.6,   -9.1,   -8.2,   -7.3,   -6.7,   -6.0,   -5.5,   -5.4,   -5.0,   -4.6,   -4.2,   -3.7,   -3.4,   -3.2,   -3.2,   -3.4,   -3.9,   -4.3,   -4.6,   -5.4,   -6.2,   -6.9,   -6.6,   -6.6,   -6.6,   -6.8,   -7.1,   -7.4,   -8.0,   -8.7,   -9.2,   -9.6,  -10.1,  -10.4,  -11.0,  -10.8,  -11.3,  999.0,  999.0,  999.0,  999.0,  999.0,  999.0,  999.0,  999.0,  999.0,  999.0,  999.0,  999.0,  999.0,  999.0
2020/04/13 11:40,  999.0,  999.0,    0.4,   -0.6,   -1.1,   -2.5,   -1.5,   -1.3,  999.0,  999.0,  999.0,   -0.8,   -1.1,   -2.5,   -3.4,   -4.2,   -4.7,   -4.5,   -4.6,   -5.0,   -5.3,   -5.7,   -6.6,   -7.5,   -8.7,   -9.4,  -10.1,  -10.5,  -10.5,   -9.8,   -8.9,   -8.0,   -7.0,   -6.5,   -6.5,   -5.9,   -5.0,   -4.1,   -3.2,   -2.8,   -2.7,   -2.8,   -3.2,   -3.3,   -3.1,   -3.3,   -3.6,   -4.2,   -4.7,   -5.4,   -6.2,   -6.7,   -6.8,   -6.9,   -7.1,   -7.4,   -7.8,   -8.4,   -8.9,   -8.9,   -8.9,   -9.5,  -10.4,  999.0,  999.0,  999.0,  999.0,  999.0,  999.0,  999.0,  999.0,  999.0,  999.0,  999.0,  999.0,  999.0,  999.0,  999.0,  999.0,  999.0
2020/04/13 11:50,    6.0,    3.8,    0.8,   -0.2,   -0.1,  999.0,  999.0,   -1.8,   -1.5,   -2.7,   -2.5,   -2.1,   -2.0,   -2.5,   -2.6,   -3.1,   -4.1,   -5.3,   -6.0,   -6.2,   -6.4,   -7.0,   -7.4,   -8.1,   -8.5,   -8.8,   -9.1,   -9.5,   -9.6,   -8.8,   -7.6,   -6.5,   -5.8,   -5.1,   -4.4,   -4.0,   -3.7,   -3.6,   -3.6,   -3.7,   -3.6,   -3.5,   -3.7,   -4.0,   -4.0,   -4.1,   -4.1,   -4.3,   -4.6,   -5.0,   -5.5,   -6.0,   -6.5,   -6.5,   -6.5,   -6.9,   -7.6,   -7.8,   -7.8,   -7.9,   -8.3,   -8.9,   -9.6,   -9.8,  -10.3,  -10.9,  999.0,  999.0,  999.0,  999.0,  999.0,  999.0,  999.0,  999.0,  999.0,  999.0,  999.0,  999.0,  999.0,  999.0
2020/04/13 12:00,  999.0,  999.0,    3.9,  999.0,  999.0,  999.0,  999.0,   -1.0,   -0.3,  999.0,   -1.2,   -1.1,   -1.4,   -1.5,   -1.7,   -2.0,   -2.3,   -3.0,   -3.5,   -4.3,   -5.6,   -6.8,   -7.6,   -8.0,   -8.4,   -8.7,   -8.9,   -8.5,   -8.6,   -8.6,   -7.9,   -7.3,   -6.8,   -6.2,   -5.1,   -3.8,   -3.0,   -2.8,   -3.0,   -3.0,   -2.8,   -2.9,   -3.4,   -3.5,   -3.7,   -3.6,   -3.8,   -4.5,   -5.1,   -5.4,   -6.0,   -6.4,   -7.0,   -7.6,   -7.6,   -7.9,   -8.3,   -8.5,   -8.5,   -8.8,   -9.1,   -9.2,   -9.5,  -10.1,  -10.6,   -9.9,  999.0,  999.0,  999.0,  999.0,  999.0,  999.0,  999.0,  999.0,  999.0,  999.0,  999.0,  999.0,  999.0,  999.0
2020/04/13 12:10,  999.0,  999.0,    3.5,    2.3,  999.0,  999.0,  999.0,  999.0,   -0.7,   -1.5,   -2.5,   -2.4,   -2.1,   -1.4,   -0.8,   -0.8,   -1.9,   -2.8,   -3.6,   -4.6,   -4.8,   -5.3,   -6.2,   -6.3,   -6.6,   -6.8,   -7.3,   -7.3,   -7.4,   -7.5,   -7.4,   -6.7,   -6.3,   -5.8,   -4.2,   -3.0,   -2.4,   -2.2,   -2.3,   -2.8,   -3.2,   -3.0,   -2.6,   -2.5,   -2.5,   -2.8,   -3.4,   -4.3,   -5.3,   -6.2,   -6.9,   -7.5,   -8.0,   -8.3,   -8.4,   -8.7,   -9.0,   -9.3,   -9.3,   -9.2,   -9.3,   -9.5,   -9.6,   -9.5,  999.0,  999.0,  999.0,  999.0,  999.0,  999.0,  999.0,  999.0,  999.0,  999.0,  999.0,  999.0,  999.0,  999.0,  999.0,  999.0
2020/04/13 12:20,  999.0,  999.0,    3.9,    2.2,  999.0,  999.0,  999.0,    0.2,  999.0,  999.0,   -1.8,   -2.8,   -2.2,   -1.3,   -0.6,   -1.5,   -2.7,   -3.2,   -3.3,   -3.9,   -4.7,   -5.1,   -5.8,   -5.9,   -5.9,   -6.2,   -6.3,   -6.5,   -6.8,   -6.9,   -6.9,   -6.9,   -7.0,   -6.7,   -5.4,   -3.2,   -2.1,   -1.8,   -2.1,   -2.7,   -3.4,   -3.4,   -3.6,   -3.6,   -2.9,   -2.5,   -3.1,   -4.5,   -5.8,   -6.6,   -7.2,   -8.1,   -8.9,   -8.5,   -8.3,   -8.3,   -8.5,   -8.7,   -8.8,   -9.0,   -9.3,   -9.5,   -9.5,   -9.7,  -10.2,  999.0,  999.0,  999.0,  999.0,  999.0,  999.0,  999.0,  999.0,  999.0,  999.0,  999.0,  999.0,  999.0,  999.0,  999.0
2020/04/13 12:30,  999.0,    6.3,    6.8,    5.6,  999.0,  999.0,  999.0,  999.0,  999.0,  999.0,   -1.3,   -1.7,   -1.6,   -1.9,   -1.1,   -0.9,   -1.5,   -2.2,   -2.5,   -2.4,   -2.4,   -2.8,   -4.4,   -6.0,   -6.4,   -6.5,   -6.2,   -6.3,   -6.3,   -6.5,   -7.0,   -7.1,   -6.9,   -6.0,   -5.6,   -4.4,   -2.5,   -1.6,   -1.9,   -2.5,   -3.1,   -3.4,   -3.8,   -4.2,   -4.4,   -3.9,   -3.7,   -4.4,   -5.6,   -6.2,   -6.9,   -7.3,   -7.9,   -8.3,   -8.5,   -8.6,   -9.0,   -9.3,   -9.3,   -9.3,   -9.5,   -9.8,  -10.0,   -9.9,  -10.0,   -9.5,  999.0,  999.0,  999.0,  999.0,  999.0,  999.0,  999.0,  999.0,  999.0,  999.0,  999.0,  999.0,  999.0,  999.0
2020/04/13 12:40,  999.0,  999.0,    6.6,    4.4,    2.7,    1.8,  999.0,    0.2,  999.0,  999.0,  999.0,   -1.3,   -1.7,   -1.6,   -1.7,   -2.1,   -2.0,   -2.1,   -2.2,   -2.4,   -2.0,   -1.7,   -1.9,   -2.8,   -4.4,   -5.3,   -5.3,   -5.5,   -6.0,   -6.2,   -6.0,   -6.0,   -5.4,   -4.3,   -4.5,   -4.4,   -3.8,   -3.2,   -3.0,   -3.1,   -3.1,   -3.4,   -4.2,   -4.5,   -4.7,   -4.9,   -4.9,   -5.1,   -5.7,   -6.1,   -6.5,   -6.8,   -7.0,   -7.3,   -7.6,   -7.8,   -7.9,   -8.0,   -8.0,   -8.4,   -8.4,   -8.8,   -9.7,  -10.4,  -10.7,  -10.6,  999.0,  -10.9,  999.0,  999.0,  999.0,  999.0,  999.0,  999.0,  999.0,  999.0,  999.0,  999.0,  999.0,  999.0
2020/04/13 12:50,  999.0,    8.1,    5.5,    3.3,    1.8,    1.1,    0.4,    0.4,  999.0,  999.0,   -1.3,   -1.4,   -1.3,   -1.6,   -1.8,   -1.9,   -2.0,   -2.3,   -2.8,   -2.8,   -1.9,   -2.6,   -3.5,   -4.0,   -4.2,   -4.9,   -5.1,   -5.0,   -5.6,   -5.8,   -5.7,   -5.5,   -4.0,   -3.2,   -2.8,   -3.0,   -3.1,   -3.2,   -3.3,   -3.0,   -3.0,   -3.9,   -4.7,   -5.1,   -5.2,   -5.3,   -5.1,   -5.2,   -5.6,   -5.8,   -6.4,   -6.7,   -7.0,   -7.3,   -7.7,   -8.0,   -8.1,   -7.8,   -8.0,   -8.3,   -8.9,   -9.5,  -10.2,  -11.1,  -10.8,  -10.8,  -11.2,  999.0,  999.0,  999.0,  999.0,  999.0,  999.0,  999.0,  999.0,  999.0,  999.0,  999.0,  999.0,  999.0
2020/04/13 13:00,    7.0,    7.3,    5.2,    3.3,    0.8,    1.0,    0.2,    0.4,   -0.2,  999.0,   -0.9,   -2.0,   -2.3,   -2.3,   -1.5,   -1.2,   -0.9,   -1.0,   -1.0,   -1.8,   -2.0,   -2.4,   -3.8,   -4.4,   -4.5,   -4.8,   -4.9,   -4.9,   -5.0,   -5.3,   -5.4,   -4.9,   -3.2,   -2.2,   -2.3,   -2.7,   -3.0,   -3.0,   -3.2,   -2.9,   -3.1,   -4.2,   -5.1,   -5.6,   -5.7,   -5.5,   -5.5,   -5.4,   -5.6,   -6.0,   -6.2,   -6.7,   -6.8,   -6.8,   -6.9,   -7.2,   -7.5,   -8.0,   -8.3,   -8.4,   -8.9,   -9.3,   -9.9,  -10.5,  -10.5,  999.0,  999.0,  999.0,  999.0,  999.0,  999.0,  999.0,  999.0,  999.0,  999.0,  999.0,  999.0,  999.0,  999.0,  999.0
2020/04/13 13:10,  999.0,    7.8,    6.0,    4.2,    1.8,    1.3,    1.7,    0.4,    0.0,   -0.4,   -0.8,   -1.1,   -1.4,   -1.4,   -1.3,   -1.5,   -1.4,   -0.8,   -0.2,   -0.3,   -1.6,   -2.6,   -3.7,   -4.2,   -4.2,   -4.1,   -4.4,   -4.8,   -4.7,   -4.6,   -4.2,   -3.5,   -1.8,   -1.2,   -1.5,   -2.3,   -2.8,   -3.5,   -3.7,   -3.6,   -3.5,   -4.1,   -5.1,   -5.8,   -6.0,   -5.8,   -5.6,   -5.4,   -5.5,   -5.9,   -6.4,   -6.8,   -7.0,   -7.4,   -7.7,   -8.0,   -8.5,   -8.9,   -9.3,   -9.5,   -9.6,   -9.6,   -9.7,   -9.9,   -9.9,  -10.5,  -10.4,  999.0,  999.0,  999.0,  999.0,  999.0,  999.0,  999.0,  999.0,  999.0,  999.0,  999.0,  999.0,  999.0
2020/04/13 13:20,    8.2,    8.0,    6.5,    4.7,    3.1,    2.3,    1.5,    0.6,  999.0,  999.0,   -1.0,   -1.6,   -1.6,   -1.3,   -1.1,   -1.5,   -1.6,   -2.0,   -1.2,   -0.0,   -0.3,   -1.9,   -3.0,   -3.8,   -4.1,   -3.8,   -3.8,   -4.4,   -4.5,   -4.0,   -3.7,   -3.1,   -2.5,   -1.6,   -1.6,   -2.0,   -2.8,   -3.1,   -3.5,   -3.6,   -4.0,   -4.3,   -4.7,   -5.2,   -5.7,   -5.5,   -5.6,   -5.9,   -6.3,   -6.6,   -6.8,   -7.2,   -7.7,   -8.1,   -8.5,   -8.8,   -9.0,   -9.5,   -9.8,   -9.8,   -9.6,   -9.6,   -9.7,  999.0,   -9.9,  999.0,  999.0,  999.0,  999.0,  999.0,  999.0,  999.0,  999.0,  999.0,  999.0,  999.0,  999.0,  999.0,  999.0,  999.0
2020/04/13 13:30,  999.0,    8.0,    5.8,    4.5,    2.6,    1.5,    1.5,    0.4,  999.0,   -0.2,   -0.4,   -0.7,   -0.7,   -1.0,   -1.2,   -1.5,   -1.9,   -2.8,   -1.5,   -0.4,   -0.0,   -1.0,   -2.7,   -3.8,   -4.0,   -3.7,   -3.1,   -3.2,   -3.7,   -3.3,   -3.2,   -3.3,   -2.9,   -2.4,   -2.0,   -2.0,   -2.6,   -3.2,   -3.5,   -3.6,   -3.9,   -4.2,   -4.7,   -4.8,   -4.9,   -5.1,   -5.2,   -6.0,   -6.7,   -7.1,   -7.4,   -7.9,   -8.6,   -9.2,   -9.6,   -9.4,   -9.4,   -9.3,   -9.3,   -9.4,   -9.4,   -9.6,  -10.0,  999.0,  999.0,  999.0,  999.0,  999.0,  999.0,  999.0,  999.0,  999.0,  999.0,  999.0,  999.0,  999.0,  999.0,  999.0,  999.0,  999.0
2020/04/13 13:40,  999.0,  999.0,    7.4,    4.4,  999.0,  999.0,  999.0,  999.0,  999.0,    0.5,   -0.1,   -0.5,   -0.7,   -1.0,   -1.7,   -2.4,   -2.4,   -2.6,   -2.2,   -0.8,   -0.6,   -0.9,   -1.6,   -2.3,   -2.9,   -2.7,   -2.3,   -2.4,   -2.6,   -2.6,   -2.8,   -2.8,   -2.3,   -2.2,   -2.3,   -2.0,   -2.3,   -2.9,   -3.4,   -3.5,   -3.5,   -3.8,   -4.0,   -3.9,   -4.1,   -4.7,   -5.4,   -6.0,   -6.4,   -6.6,   -7.2,   -8.0,   -8.8,   -9.1,   -8.9,   -8.7,   -8.8,   -8.9,   -9.1,   -9.2,   -9.2,   -9.2,   -9.6,  999.0,  999.0,  999.0,  999.0,  999.0,  999.0,  999.0,  999.0,  999.0,  999.0,  999.0,  999.0,  999.0,  999.0,  999.0,  999.0,  999.0
2020/04/13 13:50,  999.0,  999.0,    6.7,    4.2,  999.0,  999.0,    0.5,  999.0,  999.0,  999.0,   -0.5,   -0.8,   -1.2,   -1.4,   -1.1,   -2.1,   -3.2,   -2.6,   -2.1,   -1.3,   -0.9,   -1.4,   -1.4,   -1.5,   -1.9,   -2.0,   -1.8,   -2.0,   -2.0,   -2.0,   -2.3,   -2.5,   -2.3,   -2.2,   -2.5,   -2.9,   -2.8,   -3.1,   -3.7,   -3.8,   -3.7,   -3.7,   -3.7,   -3.7,   -3.7,   -4.2,   -5.1,   -5.9,   -6.1,   -6.3,   -6.9,   -7.7,   -8.2,   -8.4,   -8.3,   -8.2,   -8.4,   -8.6,   -8.8,   -9.1,   -9.2,   -9.4,  999.0,  999.0,  999.0,  999.0,  999.0,  999.0,  999.0,  999.0,  999.0,  999.0,  999.0,  999.0,  999.0,  999.0,  999.0,  999.0,  999.0,  999.0
2020/04/13 14:00,  999.0,    9.1,    6.2,    4.0,    2.6,  999.0,  999.0,    0.9,  999.0,    0.2,   -0.2,   -0.9,   -1.3,   -1.7,   -1.5,   -1.9,   -2.1,   -2.2,   -2.3,   -1.5,   -0.8,   -1.0,   -1.1,   -1.2,   -1.3,   -1.1,   -1.2,   -1.4,   -1.5,   -1.3,   -1.6,   -1.8,   -2.3,   -2.3,   -2.3,   -2.9,   -3.3,   -3.0,   -3.2,   -3.4,   -3.2,   -3.4,   -3.4,   -3.4,   -3.6,   -3.7,   -4.0,   -4.9,   -5.5,   -5.5,   -6.0,   -6.7,   -7.3,   -7.9,   -8.0,   -8.2,   -8.5,   -8.5,   -8.8,   -8.6,   -8.8,   -8.9,   -8.8,   -8.6,   -8.8,  999.0,  999.0,  999.0,  999.0,  999.0,  999.0,  999.0,  999.0,  999.0,  999.0,  999.0,  999.0,  999.0,  999.0,  999.0
2020/04/13 14:10,  999.0,    8.4,    6.4,    4.8,  999.0,  999.0,  999.0,    1.4,  999.0,  999.0,   -0.8,   -0.7,   -0.8,   -1.4,   -1.5,   -2.0,   -2.6,   -2.8,   -2.1,   -1.5,   -0.5,   -0.3,   -0.7,   -0.9,   -0.9,   -0.6,   -0.8,   -1.0,   -1.2,   -1.0,   -1.2,   -1.4,   -1.9,   -2.6,   -2.8,   -2.8,   -3.1,   -3.4,   -3.8,   -3.6,   -3.3,   -3.2,   -3.2,   -3.2,   -3.3,   -3.5,   -3.8,   -4.6,   -4.9,   -5.0,   -5.4,   -5.5,   -6.5,   -7.3,   -7.4,   -7.5,   -7.7,   -8.0,   -8.2,   -8.3,   -8.4,   -8.1,   -8.7,  999.0,  999.0,  999.0,  999.0,  999.0,  999.0,  999.0,  999.0,  999.0,  999.0,  999.0,  999.0,  999.0,  999.0,  999.0,  999.0,  999.0
2020/04/13 14:20,  999.0,    8.6,    6.4,    5.1,    3.5,  999.0,  999.0,  999.0,  999.0,  999.0,   -1.3,   -0.7,   -0.7,   -1.4,   -2.2,   -3.3,   -3.8,   -3.9,   -3.2,   -1.5,   -1.1,   -0.5,   -0.6,   -0.6,   -0.6,   -0.7,   -0.4,   -0.5,   -0.8,   -0.9,   -0.7,   -1.2,   -1.2,   -1.7,   -2.6,   -2.6,   -2.6,   -3.5,   -4.0,   -3.9,   -3.7,   -3.7,   -3.5,   -3.2,   -3.0,   -3.1,   -3.3,   -3.5,   -3.7,   -4.0,   -4.1,   -4.5,   -5.2,   -6.0,   -6.3,   -6.8,   -7.2,   -7.2,   -7.2,   -7.2,   -7.2,   -7.8,   -7.9,  999.0,  999.0,  999.0,  999.0,  999.0,  999.0,  999.0,  999.0,  999.0,  999.0,  999.0,  999.0,  999.0,  999.0,  999.0,  999.0,  999.0
2020/04/13 14:30,  999.0,    8.3,    6.5,    6.2,  999.0,  999.0,  999.0,  999.0,  999.0,  999.0,    0.4,    0.4,   -0.4,   -2.2,   -3.0,   -3.0,   -3.0,   -2.8,   -3.0,   -1.9,   -1.0,   -0.6,   -0.1,   -0.1,    0.1,    0.1,    0.1,    0.1,   -0.1,   -0.3,   -0.3,   -0.5,   -1.3,   -1.3,   -2.1,   -3.2,   -3.3,   -3.7,   -3.9,   -3.8,   -4.0,   -4.0,   -4.0,   -4.0,   -3.8,   -3.7,   -3.7,   -3.7,   -3.7,   -3.8,   -4.1,   -4.3,   -4.8,   -5.4,   -5.7,   -6.0,   -6.3,   -6.2,   -6.4,   -6.8,   -7.0,   -6.8,   -7.7,  999.0,  999.0,  999.0,  999.0,  999.0,  999.0,  999.0,  999.0,  999.0,  999.0,  999.0,  999.0,  999.0,  999.0,  999.0,  999.0,  999.0
2020/04/13 14:40,   10.1,    9.5,    8.3,    6.4,    5.7,  999.0,    2.6,  999.0,  999.0,  999.0,   -0.5,   -0.8,   -1.4,   -2.3,   -2.6,   -2.7,   -2.8,   -2.5,   -2.2,   -2.0,   -0.5,   -0.2,   -0.2,   -0.3,    0.2,    0.5,    0.7,    0.5,    0.4,    0.2,   -0.1,   -0.0,   -0.6,   -1.3,   -1.7,   -2.6,   -3.0,   -3.4,   -3.5,   -3.3,   -3.4,   -3.5,   -3.2,   -3.1,   -3.2,   -3.4,   -3.6,   -3.8,   -4.3,   -4.6,   -5.0,   -4.8,   -5.1,   -5.2,   -5.4,   -5.7,   -6.1,   -6.3,   -6.7,   -6.6,   -6.9,   -7.0,   -8.1,  999.0,  999.0,  999.0,  999.0,  999.0,  999.0,  999.0,  999.0,  999.0,  999.0,  999.0,  999.0,  999.0,  999.0,  999.0,  999.0,  999.0
2020/04/13 14:50,    9.8,    9.7,    8.1,    6.1,  999.0,  999.0,  999.0,    1.3,  999.0,    0.5,    0.2,    0.1,   -0.9,   -1.7,   -2.1,   -2.5,   -2.9,   -2.5,   -2.3,   -2.0,   -0.8,   -0.1,    0.1,    0.2,    0.3,    0.7,    1.1,    1.3,    1.1,    0.7,    0.6,    0.4,    0.3,   -1.0,   -2.0,   -2.5,   -2.4,   -2.4,   -2.5,   -2.8,   -2.9,   -2.9,   -2.8,   -2.9,   -3.1,   -3.3,   -3.5,   -3.8,   -4.0,   -4.0,   -4.2,   -4.7,   -5.0,   -5.6,   -6.3,   -7.0,   -7.6,   -7.9,   -7.9,   -8.1,   -8.2,   -8.3,   -8.9,  -10.4,  999.0,  999.0,  999.0,  999.0,  999.0,  999.0,  999.0,  999.0,  999.0,  999.0,  999.0,  999.0,  999.0,  999.0,  999.0,  999.0
2020/04/13 15:00,  999.0,  999.0,    6.9,    5.5,  999.0,  999.0,  999.0,  999.0,  999.0,  999.0,   -0.5,   -0.3,   -1.0,   -1.5,   -1.9,   -2.0,   -2.1,   -2.4,   -2.3,   -1.7,   -0.3,    0.7,    0.4,   -0.1,    0.1,    0.2,    0.4,    0.9,    1.3,    1.2,    0.9,    0.6,    0.1,   -0.0,   -0.9,   -1.8,   -2.1,   -1.9,   -1.9,   -2.2,   -2.5,   -2.4,   -2.4,   -2.7,   -3.4,   -3.9,   -3.9,   -3.9,   -4.4,   -5.4,   -6.2,   -6.6,   -6.9,   -7.6,   -8.1,   -8.6,   -8.8,   -8.8,   -8.7,   -8.7,   -8.4,   -7.9,   -8.0,   -8.4,   -9.2,  999.0,  999.0,  999.0,  999.0,  999.0,  999.0,  999.0,  999.0,  999.0,  999.0,  999.0,  999.0,  999.0,  999.0,  999.0
2020/04/13 15:10,  999.0,  999.0,    7.7,    5.3,    4.1,  999.0,  999.0,  999.0,  999.0,  999.0,   -0.4,   -0.4,   -1.0,   -1.4,   -2.1,   -2.3,   -2.5,   -2.5,   -2.5,   -2.0,   -0.3,    0.1,    0.1,   -0.3,   -0.6,   -0.3,    0.1,    0.3,    0.7,    1.3,    1.3,    0.8,    0.2,   -0.4,   -0.6,   -1.1,   -1.6,   -1.9,   -1.7,   -1.7,   -1.9,   -2.1,   -2.4,   -2.9,   -3.7,   -4.3,   -4.8,   -5.1,   -6.1,   -7.3,   -7.3,   -7.2,   -7.4,   -8.0,   -8.4,   -8.6,   -8.7,   -8.9,   -9.1,   -8.6,   -8.4,   -8.0,   -8.2,   -8.6,   -9.5,  999.0,  999.0,  999.0,  999.0,  999.0,  999.0,  999.0,  999.0,  999.0,  999.0,  999.0,  999.0,  999.0,  999.0,  999.0
2020/04/13 15:20,   11.7,   11.2,    8.5,    6.3,    4.8,  999.0,  999.0,  999.0,  999.0,  999.0,  999.0,   -0.9,   -1.1,   -1.0,   -1.8,   -2.9,   -3.0,   -2.7,   -2.5,   -2.5,   -1.6,   -0.8,   -0.5,   -0.6,   -0.6,   -0.2,    0.1,    0.4,    0.5,    0.8,    1.0,    0.8,    0.3,   -0.6,   -1.1,   -1.3,   -1.5,   -1.7,   -1.8,   -1.9,   -1.9,   -2.2,   -2.5,   -2.7,   -3.1,   -3.7,   -4.6,   -5.4,   -6.2,   -7.0,   -7.0,   -6.5,   -6.3,   -7.0,   -7.6,   -8.3,   -8.8,   -8.9,   -8.7,   -7.9,   -7.6,   -7.5,   -8.6,   -8.3,   -9.9,  -11.7,  999.0,  999.0,  999.0,  999.0,  999.0,  999.0,  999.0,  999.0,  999.0,  999.0,  999.0,  999.0,  999.0,  999.0
2020/04/13 15:30,   11.1,   11.2,    9.1,    7.1,    5.4,  999.0,  999.0,    0.9,  999.0,  999.0,    0.2,    0.2,    0.2,    0.0,   -0.7,   -2.5,   -3.5,   -3.6,   -3.2,   -2.8,   -2.1,   -1.4,   -1.0,   -0.8,   -0.7,   -0.5,   -0.0,    0.1,    0.1,    0.2,    0.6,    0.5,   -0.1,   -0.7,   -1.2,   -1.3,   -1.1,   -1.2,   -1.4,   -1.6,   -1.7,   -2.1,   -2.4,   -2.8,   -3.2,   -3.5,   -4.3,   -5.1,   -5.7,   -6.4,   -6.5,   -6.3,   -5.8,   -6.0,   -6.6,   -7.4,   -8.1,   -8.6,   -8.8,   -8.4,   -8.0,   -8.1,   -8.5,   -8.3,  999.0,  999.0,  999.0,  999.0,  999.0,  999.0,  999.0,  999.0,  999.0,  999.0,  999.0,  999.0,  999.0,  999.0,  999.0,  999.0
2020/04/13 15:40,   11.0,   10.8,   10.1,    7.3,    5.8,  999.0,  999.0,    1.2,  999.0,  999.0,    0.0,   -0.2,   -0.3,   -0.6,   -1.0,   -1.7,   -2.5,   -2.8,   -2.9,   -3.7,   -3.3,   -1.9,   -1.1,   -1.1,   -1.0,   -0.8,   -0.3,    0.0,    0.2,    0.4,    0.5,    0.5,    0.5,    0.2,   -0.5,   -0.8,   -0.9,   -0.8,   -0.6,   -0.8,   -0.9,   -1.6,   -2.9,   -4.0,   -4.5,   -4.3,   -4.5,   -4.4,   -4.4,   -4.8,   -5.0,   -4.9,   -4.9,   -5.1,   -5.5,   -6.4,   -7.0,   -7.9,   -8.7,   -8.6,   -8.8,   -8.4,   -8.2,  999.0,   -9.8,  999.0,  999.0,  999.0,  999.0,  999.0,  999.0,  999.0,  999.0,  999.0,  999.0,  999.0,  999.0,  999.0,  999.0,  999.0
2020/04/13 15:50,  999.0,  999.0,    9.0,    7.3,    4.6,    3.3,  999.0,    0.7,    0.3,  999.0,  999.0,   -0.3,   -0.4,   -0.2,   -0.3,    0.0,    0.6,    0.8,    0.3,   -0.9,   -2.8,   -2.7,   -1.3,   -0.3,   -0.1,   -0.5,   -0.7,   -0.5,   -0.1,    0.2,    0.7,    0.8,    0.8,    0.7,    0.2,   -0.3,    0.1,    0.5,    0.6,    0.5,    0.3,   -0.9,   -2.6,   -3.7,   -4.3,   -4.1,   -3.9,   -3.5,   -3.5,   -4.1,   -4.6,   -5.1,   -5.7,   -6.5,   -7.0,   -7.2,   -7.7,   -8.4,   -9.0,   -8.7,   -8.4,   -8.4,   -8.5,   -9.4,  -11.0,  999.0,  999.0,  999.0,  999.0,  999.0,  999.0,  999.0,  999.0,  999.0,  999.0,  999.0,  999.0,  999.0,  999.0,  999.0
2020/04/13 16:00,  999.0,  999.0,    8.4,    6.2,    4.7,    3.3,  999.0,  999.0,    3.0,  999.0,  999.0,    1.7,    1.6,    1.5,    1.2,    0.8,    0.4,    0.1,   -0.3,   -0.6,   -0.8,   -1.1,   -1.8,   -1.7,   -0.3,    0.6,    0.7,   -0.1,   -0.6,   -0.3,    0.3,    0.8,    1.0,    1.0,    1.0,    0.8,    0.9,    1.6,    1.7,    1.6,    1.0,   -0.3,   -1.9,   -2.5,   -3.0,   -3.4,   -3.3,   -3.3,   -3.9,   -4.5,   -5.0,   -5.1,   -5.8,   -6.7,   -7.4,   -7.6,   -7.6,   -7.9,   -7.8,   -8.0,   -8.1,   -8.2,   -8.6,  -10.2,  999.0,  999.0,  999.0,  999.0,  999.0,  999.0,  999.0,  999.0,  999.0,  999.0,  999.0,  999.0,  999.0,  999.0,  999.0,  999.0
2020/04/13 16:10,  999.0,    9.1,    8.2,    6.9,    5.9,    4.6,    3.9,  999.0,    3.1,  999.0,  999.0,    1.9,    1.5,    1.2,    0.8,    0.5,    0.1,   -0.3,   -0.5,   -1.2,   -1.3,   -1.2,   -1.5,   -2.0,   -1.4,    0.3,    1.5,    0.9,   -0.4,   -0.5,    0.1,    0.5,    0.9,    1.4,    1.6,    1.6,    2.2,    2.3,    2.2,    1.9,    1.2,   -0.7,   -2.3,   -3.7,   -4.5,   -4.1,   -3.4,   -3.2,   -3.8,   -4.4,   -5.0,   -5.5,   -6.2,   -6.9,   -7.0,   -7.0,   -7.3,   -7.3,   -7.3,   -7.3,   -7.9,   -8.7,   -9.7,  -10.5,  999.0,  999.0,  999.0,  999.0,  999.0,  999.0,  999.0,  999.0,  999.0,  999.0,  999.0,  999.0,  999.0,  999.0,  999.0,  999.0
2020/04/13 16:20,   10.6,   10.4,    8.9,    8.0,    7.3,    5.8,    4.7,  999.0,    3.4,  999.0,    3.0,    2.3,    1.8,    1.4,    1.0,    0.6,    0.4,    0.2,   -0.2,   -0.5,   -0.9,   -1.2,   -1.5,   -2.1,   -1.9,   -0.5,    1.5,    1.8,    1.1,   -0.2,   -0.3,    0.1,    0.6,    1.3,    1.8,    2.1,    2.4,    2.2,    2.0,    1.9,    0.7,   -1.7,   -3.6,   -4.6,   -4.9,   -4.5,   -3.9,   -3.5,   -3.8,   -4.1,   -4.6,   -5.0,   -5.6,   -6.1,   -6.1,   -6.5,   -7.1,   -7.6,   -7.7,   -7.6,   -8.1,   -9.0,   -9.8,  -10.8,  999.0,  999.0,  999.0,  999.0,  999.0,  999.0,  999.0,  999.0,  999.0,  999.0,  999.0,  999.0,  999.0,  999.0,  999.0,  999.0
2020/04/13 16:30,  999.0,   10.2,    8.7,  999.0,    6.2,    4.6,  999.0,  999.0,    1.0,    1.8,  999.0,    1.6,    1.2,    0.9,    0.8,    0.6,    0.7,    0.8,    0.3,   -0.2,   -0.3,   -0.3,   -0.2,   -0.1,   -0.1,   -0.2,   -0.0,    0.9,    2.0,    2.1,    1.8,    1.0,    0.4,    0.3,    0.7,    1.1,    1.6,    1.9,    1.9,    1.8,    1.0,   -1.2,   -2.9,   -3.6,   -3.7,   -3.5,   -3.3,   -3.6,   -3.9,   -4.2,   -4.2,   -4.8,   -5.2,   -5.4,   -5.7,   -6.0,   -6.2,   -6.7,   -6.8,   -7.2,   -7.7,   -8.7,  -10.1,  -11.0,  -12.4,  999.0,  999.0,  999.0,  999.0,  999.0,  999.0,  999.0,  999.0,  999.0,  999.0,  999.0,  999.0,  999.0,  999.0,  999.0
2020/04/13 16:40,  999.0,  999.0,    9.0,    7.3,    6.3,    5.0,  999.0,  999.0,    2.8,  999.0,  999.0,    2.4,    1.8,    1.4,    0.8,    0.3,    0.1,    0.2,    0.1,   -0.1,   -0.3,   -0.2,   -0.0,    0.6,    0.8,    0.2,   -0.1,   -0.1,    1.1,    1.7,    2.2,    2.2,    1.9,    1.4,    1.2,    1.2,    1.1,    0.9,    0.8,    0.6,    0.7,    0.2,   -1.5,   -2.8,   -3.4,   -3.4,   -3.6,   -4.2,   -4.5,   -4.6,   -4.7,   -4.9,   -5.3,   -5.3,   -5.6,   -6.3,   -6.7,   -6.8,   -7.1,   -7.6,   -8.5,   -9.3,  999.0,  999.0,  999.0,  999.0,  999.0,  999.0,  999.0,  999.0,  999.0,  999.0,  999.0,  999.0,  999.0,  999.0,  999.0,  999.0,  999.0,  999.0
2020/04/13 16:50,  999.0,  999.0,    6.7,    6.2,    4.7,    4.9,    4.4,  999.0,  999.0,    2.7,  999.0,  999.0,    1.0,    0.6,   -0.2,   -0.6,   -0.6,   -0.6,   -0.5,   -0.2,   -0.1,   -0.2,    0.3,    1.1,    1.2,    0.8,    0.4,    0.1,    0.7,    1.3,    1.4,    1.5,    1.4,    1.4,    1.0,    0.4,   -0.0,   -0.1,   -0.2,   -0.4,   -0.4,   -1.2,   -2.3,   -3.3,   -3.2,   -2.7,   -2.9,   -3.1,   -3.3,   -3.6,   -3.8,   -4.4,   -4.9,   -5.1,   -5.3,   -5.8,   -6.5,   -6.6,   -6.7,   -7.3,   -7.4,   -7.8,  999.0,  999.0,  999.0,  999.0,  999.0,  999.0,  999.0,  999.0,  999.0,  999.0,  999.0,  999.0,  999.0,  999.0,  999.0,  999.0,  999.0,  999.0
2020/04/13 17:00,  999.0,  999.0,    7.3,    7.4,    5.9,    4.8,    3.2,  999.0,    3.1,  999.0,  999.0,    3.1,    2.3,    1.5,    1.1,    0.5,    0.1,   -0.3,   -0.8,   -0.9,   -1.2,   -1.3,   -0.8,    0.7,    2.0,    1.9,    2.2,    2.4,    2.6,    2.5,    2.6,    2.3,    2.1,    1.7,    1.2,    0.7,    0.3,    0.4,    0.1,   -0.4,   -0.9,   -1.8,   -3.1,   -3.3,   -3.1,   -2.8,   -2.7,   -2.6,   -2.8,   -3.1,   -3.3,   -3.4,   -3.7,   -4.2,   -4.7,   -5.1,   -5.4,   -5.7,   -6.2,   -6.6,   -7.4,  999.0,  999.0,  999.0,  999.0,  999.0,  999.0,  999.0,  999.0,  999.0,  999.0,  999.0,  999.0,  999.0,  999.0,  999.0,  999.0,  999.0,  999.0,  999.0
2020/04/13 17:10,  999.0,  999.0,    8.6,    7.5,    6.8,    6.2,    5.4,    4.7,    4.1,    3.2,  999.0,    2.7,    2.2,    1.8,    1.5,    0.9,    0.3,   -0.2,   -0.5,   -0.8,   -1.0,   -0.9,   -0.3,    0.7,    1.9,    2.3,    2.5,    2.6,    2.7,    2.9,    2.8,    2.9,    2.5,    1.9,    1.7,    1.3,    0.9,    0.4,    0.3,   -0.4,   -2.0,   -2.9,   -2.7,   -2.3,   -1.9,   -1.7,   -1.9,   -2.1,   -2.1,   -2.5,   -3.4,   -4.1,   -4.8,  999.0,  999.0,  999.0,  999.0,  999.0,  999.0,  999.0,  999.0,  999.0,  999.0,  999.0,  999.0,  999.0,  999.0,  999.0,  999.0,  999.0,  999.0,  999.0,  999.0,  999.0,  999.0,  999.0,  999.0,  999.0,  999.0,  999.0
2020/04/13 17:20,   10.1,    8.3,    8.3,    6.3,    5.0,    5.2,    4.5,  999.0,    2.0,    1.0,    1.6,    1.6,    1.5,    1.2,    0.8,    0.5,    0.3,    0.0,   -0.1,   -0.6,   -1.0,   -1.0,   -0.1,    0.6,    1.1,    1.6,    2.4,    3.0,    3.5,    3.7,    3.7,    3.5,    2.8,    2.1,    1.5,    1.0,    0.6,    0.4,   -0.1,   -0.6,   -1.9,   -3.1,   -2.8,   -2.2,   -1.5,   -1.2,   -1.5,   -1.5,   -1.7,   -2.3,   -2.9,   -3.5,   -4.6,   -4.9,  999.0,  999.0,  999.0,  999.0,  999.0,  999.0,  999.0,  999.0,  999.0,  999.0,  999.0,  999.0,  999.0,  999.0,  999.0,  999.0,  999.0,  999.0,  999.0,  999.0,  999.0,  999.0,  999.0,  999.0,  999.0,  999.0
2020/04/13 17:30,    9.5,    8.1,    7.3,    6.0,    5.2,    5.0,    3.7,    2.3,    2.7,    2.1,    2.0,    1.6,    1.5,    0.9,    0.5,    0.5,    0.6,    0.7,    0.7,    0.4,    0.3,    0.3,    0.8,    1.5,    2.4,    2.8,    3.2,    3.1,    3.7,    3.8,    3.7,    3.3,    3.2,    3.2,    3.2,    3.0,    2.4,    1.4,    0.1,   -0.8,   -2.0,   -3.4,   -2.3,   -1.1,   -0.6,   -0.9,   -1.3,   -1.1,   -1.5,   -2.7,   -3.2,   -3.7,   -4.4,   -5.0,  999.0,  999.0,  999.0,  999.0,  999.0,  999.0,  999.0,  999.0,  999.0,  999.0,  999.0,  999.0,  999.0,  999.0,  999.0,  999.0,  999.0,  999.0,  999.0,  999.0,  999.0,  999.0,  999.0,  999.0,  999.0,  999.0
2020/04/13 17:40,    8.8,    7.6,    6.5,    5.8,    4.6,    4.2,    3.1,    2.8,    2.9,    3.0,    2.5,    1.6,    0.7,    0.3,   -0.5,   -0.4,   -0.2,    0.3,    0.5,    0.4,    0.5,    0.8,    1.0,    1.4,    2.4,    3.0,    3.3,    3.0,    2.7,    3.3,    3.7,    3.7,    3.5,    3.7,    3.1,    2.1,    1.8,    1.6,    1.1,    0.2,   -0.2,   -0.6,   -0.9,   -1.1,   -1.1,   -0.9,   -0.6,   -0.5,   -0.9,   -1.7,   -2.5,   -2.8,   -3.5,  999.0,  999.0,  999.0,  999.0,  999.0,  999.0,  999.0,  999.0,  999.0,  999.0,  999.0,  999.0,  999.0,  999.0,  999.0,  999.0,  999.0,  999.0,  999.0,  999.0,  999.0,  999.0,  999.0,  999.0,  999.0,  999.0,  999.0
2020/04/13 17:50,    7.8,    6.9,    5.5,    4.9,    4.0,    3.5,    3.0,    2.5,    2.6,    2.7,    2.7,    2.7,    2.5,    2.2,    1.7,    1.4,    1.5,    1.6,    1.4,    1.2,    1.2,    1.0,    1.0,    1.1,    1.2,    1.5,    2.2,    1.9,    1.8,    2.3,    2.6,    2.6,    2.8,    2.8,    2.5,    2.2,    2.6,    2.9,    2.1,    1.4,    1.4,    1.2,    0.3,   -0.7,   -1.0,   -0.6,   -0.2,   -0.6,   -1.2,   -1.4,  999.0,  999.0,  999.0,  999.0,  999.0,  999.0,  999.0,  999.0,  999.0,  999.0,  999.0,  999.0,  999.0,  999.0,  999.0,  999.0,  999.0,  999.0,  999.0,  999.0,  999.0,  999.0,  999.0,  999.0,  999.0,  999.0,  999.0,  999.0,  999.0,  999.0
2020/04/13 18:00,    6.9,    6.8,    5.1,    4.6,    3.8,    3.3,    2.6,    3.6,    4.5,    2.8,  999.0,    2.9,    2.7,    2.4,    2.3,    2.0,    1.6,    1.5,    1.6,    1.4,    1.3,    1.3,    1.3,    1.6,    1.6,    1.5,    1.6,    1.9,    2.0,    2.3,    2.2,    2.2,    2.6,    2.8,    2.4,    1.4,    0.5,    0.5,    0.2,    0.2,    0.1,   -0.2,   -0.1,    0.1,    0.2,    0.3,    0.0,   -0.4,   -0.7,   -1.6,   -2.3,   -3.2,   -4.7,  999.0,  999.0,  999.0,  999.0,  999.0,  999.0,  999.0,  999.0,  999.0,  999.0,  999.0,  999.0,  999.0,  999.0,  999.0,  999.0,  999.0,  999.0,  999.0,  999.0,  999.0,  999.0,  999.0,  999.0,  999.0,  999.0,  999.0
2020/04/13 18:10,  999.0,  999.0,    5.8,    5.0,    4.8,    4.0,    4.5,    4.6,    5.4,  999.0,  999.0,    6.3,    6.5,    6.1,    5.2,    4.2,    3.1,    2.3,    2.2,    1.8,    1.6,    1.7,    1.8,    2.0,    2.0,    1.9,    1.8,    1.9,    1.8,    1.6,    1.4,    1.3,    1.6,    2.0,    1.7,    0.8,   -0.6,   -1.1,   -0.7,   -0.3,   -0.0,    0.5,    0.7,    0.7,    0.8,    0.3,   -0.6,   -1.0,   -1.7,   -2.3,   -3.9,  999.0,  999.0,  999.0,  999.0,  999.0,  999.0,  999.0,  999.0,  999.0,  999.0,  999.0,  999.0,  999.0,  999.0,  999.0,  999.0,  999.0,  999.0,  999.0,  999.0,  999.0,  999.0,  999.0,  999.0,  999.0,  999.0,  999.0,  999.0,  999.0
2020/04/13 18:20,  999.0,  999.0,    5.2,    4.6,    3.8,  999.0,  999.0,  999.0,  999.0,  999.0,  999.0,    7.1,    6.7,    6.4,    5.8,    5.4,    4.8,    4.4,    4.1,    3.9,    3.8,    3.9,    3.7,    3.6,    3.6,    3.3,    2.4,    1.7,    1.1,    0.4,    0.6,    0.4,    0.6,    1.0,   -0.2,   -1.0,   -1.2,   -1.5,   -1.4,   -1.0,   -0.7,   -0.2,    0.2,    0.0,   -0.4,   -0.9,   -1.1,   -1.6,   -2.1,   -2.8,   -4.2,   -5.9,   -6.2,   -6.6,  999.0,  999.0,  999.0,  999.0,  999.0,  999.0,  999.0,  999.0,  999.0,  999.0,  999.0,  999.0,  999.0,  999.0,  999.0,  999.0,  999.0,  999.0,  999.0,  999.0,  999.0,  999.0,  999.0,  999.0,  999.0,  999.0
2020/04/13 18:30,    6.8,    6.3,    5.5,    4.7,    4.0,    4.6,    4.7,    5.5,    6.1,  999.0,    6.3,    6.4,    6.4,    6.4,    6.0,    5.2,    5.4,    4.2,    3.0,    3.0,    3.2,    3.0,    2.7,    2.3,    2.2,    2.2,    1.9,    1.3,    1.0,    0.9,    0.2,   -0.6,   -1.0,   -1.0,   -0.8,   -0.9,   -0.8,   -1.0,   -1.1,   -0.8,   -0.6,   -0.3,   -0.2,   -0.6,   -0.7,   -1.0,   -1.4,   -1.8,   -1.9,   -2.4,   -3.5,  999.0,  999.0,  999.0,  999.0,  999.0,  999.0,  999.0,  999.0,  999.0,  999.0,  999.0,  999.0,  999.0,  999.0,  999.0,  999.0,  999.0,  999.0,  999.0,  999.0,  999.0,  999.0,  999.0,  999.0,  999.0,  999.0,  999.0,  999.0,  999.0
2020/04/13 18:40,  999.0,    6.4,    5.6,    4.9,    4.1,    4.0,    5.0,    4.4,    5.0,  999.0,    4.7,    4.4,    4.2,    4.1,    3.9,    3.8,    4.2,    4.3,    3.8,    3.1,    2.7,    2.9,    2.9,    3.0,    2.7,    2.2,    1.8,    1.5,    1.6,    1.2,    0.9,    0.6,    0.4,    0.1,   -0.1,   -0.1,   -0.2,   -0.6,   -0.9,   -0.7,   -0.7,   -0.7,   -0.8,   -0.8,   -1.2,   -2.2,   -2.4,   -2.6,  999.0,  999.0,  999.0,  999.0,  999.0,  999.0,  999.0,  999.0,  999.0,  999.0,  999.0,  999.0,  999.0,  999.0,  999.0,  999.0,  999.0,  999.0,  999.0,  999.0,  999.0,  999.0,  999.0,  999.0,  999.0,  999.0,  999.0,  999.0,  999.0,  999.0,  999.0,  999.0
2020/04/13 18:50,    7.2,    6.5,    6.0,    5.1,    4.1,    4.1,    3.5,    2.8,    3.4,    3.7,    4.0,    4.3,    4.4,    4.5,    3.8,    3.2,    2.9,    2.6,    2.2,    2.2,    2.3,    1.7,    1.5,    1.9,    2.0,    2.4,    2.1,    1.6,    1.4,    1.6,    1.8,    1.1,    0.5,    0.5,    0.4,    0.0,   -0.5,   -0.7,   -0.5,   -0.4,   -0.5,   -1.0,   -1.4,  999.0,  999.0,  999.0,  999.0,  999.0,  999.0,  999.0,  999.0,  999.0,  999.0,  999.0,  999.0,  999.0,  999.0,  999.0,  999.0,  999.0,  999.0,  999.0,  999.0,  999.0,  999.0,  999.0,  999.0,  999.0,  999.0,  999.0,  999.0,  999.0,  999.0,  999.0,  999.0,  999.0,  999.0,  999.0,  999.0,  999.0
2020/04/13 19:00,    7.1,    6.4,    4.8,    4.0,    3.3,    3.1,    2.4,    2.8,    2.1,    2.3,    1.5,    1.5,    1.1,    0.9,    0.4,    0.6,    0.2,    0.4,    1.0,    0.9,    0.3,    0.7,   -0.1,    0.6,    1.7,    1.6,    0.7,    0.3,    0.2,    0.2,   -0.9,   -2.1,   -2.7,   -2.4,   -2.3,   -2.2,   -2.0,  999.0,  999.0,  999.0,  999.0,  999.0,  999.0,  999.0,  999.0,  999.0,  999.0,  999.0,  999.0,  999.0,  999.0,  999.0,  999.0,  999.0,  999.0,  999.0,  999.0,  999.0,  999.0,  999.0,  999.0,  999.0,  999.0,  999.0,  999.0,  999.0,  999.0,  999.0,  999.0,  999.0,  999.0,  999.0,  999.0,  999.0,  999.0,  999.0,  999.0,  999.0,  999.0,  999.0
2020/04/13 19:10,  999.0,    4.4,    4.9,    4.4,    4.2,    3.3,    2.9,    2.9,  999.0,    2.9,    2.7,    2.1,    1.5,    0.8,   -0.1,   -0.7,   -1.5,   -2.8,   -3.7,   -4.0,   -3.2,   -1.4,   -0.7,   -1.0,   -1.6,   -2.9,   -4.0,   -3.7,   -3.5,   -3.3,   -3.9,   -4.5,   -4.6,   -4.3,  999.0,  999.0,  999.0,  999.0,  999.0,  999.0,  999.0,  999.0,  999.0,  999.0,  999.0,  999.0,  999.0,  999.0,  999.0,  999.0,  999.0,  999.0,  999.0,  999.0,  999.0,  999.0,  999.0,  999.0,  999.0,  999.0,  999.0,  999.0,  999.0,  999.0,  999.0,  999.0,  999.0,  999.0,  999.0,  999.0,  999.0,  999.0,  999.0,  999.0,  999.0,  999.0,  999.0,  999.0,  999.0,  999.0
2020/04/13 19:20,    5.9,    5.7,    4.9,    3.8,    3.2,    2.8,    2.4,    1.8,    1.7,    2.0,    1.6,    1.0,    0.5,    0.3,   -0.1,   -1.3,   -2.5,   -3.9,   -5.1,   -5.9,   -5.3,   -4.0,   -2.6,   -2.7,   -3.4,   -4.9,  999.0,  999.0,  999.0,  999.0,  999.0,  999.0,  999.0,  999.0,  999.0,  999.0,  999.0,  999.0,  999.0,  999.0,  999.0,  999.0,  999.0,  999.0,  999.0,  999.0,  999.0,  999.0,  999.0,  999.0,  999.0,  999.0,  999.0,  999.0,  999.0,  999.0,  999.0,  999.0,  999.0,  999.0,  999.0,  999.0,  999.0,  999.0,  999.0,  999.0,  999.0,  999.0,  999.0,  999.0,  999.0,  999.0,  999.0,  999.0,  999.0,  999.0,  999.0,  999.0,  999.0,  999.0
2020/04/13 19:30,  999.0,    4.3,  999.0,  999.0,    3.9,  999.0,  999.0,    0.1,   -1.2,   -0.9,   -0.9,   -0.7,   -1.0,   -1.4,   -1.9,   -1.9,   -1.7,   -2.2,   -3.4,   -4.4,   -4.5,   -4.6,   -4.7,   -5.0,   -4.7,   -4.6,   -4.3,   -4.7,   -6.2,  999.0,  999.0,  999.0,  999.0,  999.0,  999.0,  999.0,  999.0,  999.0,  999.0,  999.0,  999.0,  999.0,  999.0,  999.0,  999.0,  999.0,  999.0,  999.0,  999.0,  999.0,  999.0,  999.0,  999.0,  999.0,  999.0,  999.0,  999.0,  999.0,  999.0,  999.0,  999.0,  999.0,  999.0,  999.0,  999.0,  999.0,  999.0,  999.0,  999.0,  999.0,  999.0,  999.0,  999.0,  999.0,  999.0,  999.0,  999.0,  999.0,  999.0,  999.0
2020/04/13 19:40,    4.5,    4.0,    3.6,    2.8,    3.0,    2.2,    2.9,    1.2,  999.0,    0.1,   -0.2,   -1.2,   -1.7,   -1.9,   -2.2,   -2.1,   -2.2,   -1.8,   -1.6,   -1.5,   -2.0,   -2.5,   -3.3,   -4.0,   -3.8,   -3.9,  999.0,  999.0,  999.0,  999.0,  999.0,  999.0,  999.0,  999.0,  999.0,  999.0,  999.0,  999.0,  999.0,  999.0,  999.0,  999.0,  999.0,  999.0,  999.0,  999.0,  999.0,  999.0,  999.0,  999.0,  999.0,  999.0,  999.0,  999.0,  999.0,  999.0,  999.0,  999.0,  999.0,  999.0,  999.0,  999.0,  999.0,  999.0,  999.0,  999.0,  999.0,  999.0,  999.0,  999.0,  999.0,  999.0,  999.0,  999.0,  999.0,  999.0,  999.0,  999.0,  999.0,  999.0
2020/04/13 19:50,  999.0,    3.9,    4.4,    4.5,    3.8,    3.4,    3.2,    2.6,  999.0,    1.2,   -0.7,   -2.0,   -2.9,   -2.7,   -2.4,   -2.2,   -1.8,   -1.6,   -1.6,   -1.9,   -1.8,   -2.4,   -1.6,   -3.6,   -4.5,  999.0,  999.0,  999.0,  999.0,  999.0,  999.0,  999.0,  999.0,  999.0,  999.0,  999.0,  999.0,  999.0,  999.0,  999.0,  999.0,  999.0,  999.0,  999.0,  999.0,  999.0,  999.0,  999.0,  999.0,  999.0,  999.0,  999.0,  999.0,  999.0,  999.0,  999.0,  999.0,  999.0,  999.0,  999.0,  999.0,  999.0,  999.0,  999.0,  999.0,  999.0,  999.0,  999.0,  999.0,  999.0,  999.0,  999.0,  999.0,  999.0,  999.0,  999.0,  999.0,  999.0,  999.0,  999.0
2020/04/13 20:00,    4.8,    4.7,    5.8,    6.1,    3.8,    5.1,    3.1,    2.9,  999.0,   -0.0,   -2.3,   -3.4,   -4.3,   -4.0,   -3.7,   -3.3,   -2.5,   -1.7,   -1.0,   -0.8,   -1.6,   -3.2,   -4.3,   -6.0,   -7.3,   -6.6,  999.0,  999.0,  999.0,  999.0,  999.0,  999.0,  999.0,  999.0,  999.0,  999.0,  999.0,  999.0,  999.0,  999.0,  999.0,  999.0,  999.0,  999.0,  999.0,  999.0,  999.0,  999.0,  999.0,  999.0,  999.0,  999.0,  999.0,  999.0,  999.0,  999.0,  999.0,  999.0,  999.0,  999.0,  999.0,  999.0,  999.0,  999.0,  999.0,  999.0,  999.0,  999.0,  999.0,  999.0,  999.0,  999.0,  999.0,  999.0,  999.0,  999.0,  999.0,  999.0,  999.0,  999.0
2020/04/13 20:10,  999.0,    6.2,    7.1,    7.3,    7.0,    6.1,    5.0,    2.2,    1.3,   -0.4,   -2.4,   -3.5,   -3.5,   -3.8,   -3.7,   -3.5,   -3.4,   -2.7,   -3.1,   -4.0,   -4.9,   -5.4,   -5.4,   -5.5,   -5.7,   -5.7,   -5.8,  999.0,  999.0,  999.0,  999.0,  999.0,  999.0,  999.0,  999.0,  999.0,  999.0,  999.0,  999.0,  999.0,  999.0,  999.0,  999.0,  999.0,  999.0,  999.0,  999.0,  999.0,  999.0,  999.0,  999.0,  999.0,  999.0,  999.0,  999.0,  999.0,  999.0,  999.0,  999.0,  999.0,  999.0,  999.0,  999.0,  999.0,  999.0,  999.0,  999.0,  999.0,  999.0,  999.0,  999.0,  999.0,  999.0,  999.0,  999.0,  999.0,  999.0,  999.0,  999.0,  999.0
2020/04/13 20:20,  999.0,    8.8,    8.1,    7.6,    7.1,    6.6,    5.1,    3.9,    2.4,    0.4,   -1.9,   -3.6,   -3.4,   -3.2,   -3.3,   -3.0,   -2.5,   -3.5,   -5.2,   -6.6,   -6.3,   -5.1,   -4.7,   -4.7,   -3.8,   -3.9,   -2.5,  999.0,  999.0,    0.4,  999.0,    0.0,    0.1,  999.0,  999.0,  999.0,  999.0,  999.0,  999.0,  999.0,  999.0,  999.0,  999.0,  999.0,  999.0,  999.0,  999.0,  999.0,  999.0,  999.0,  999.0,  999.0,  999.0,  999.0,  999.0,  999.0,  999.0,  999.0,  999.0,  999.0,  999.0,  999.0,  999.0,  999.0,  999.0,  999.0,  999.0,  999.0,  999.0,  999.0,  999.0,  999.0,  999.0,  999.0,  999.0,  999.0,  999.0,  999.0,  999.0,  999.0
2020/04/13 20:30,  999.0,    8.1,    8.2,    8.2,    7.6,    6.4,    5.3,    3.7,    3.1,    1.9,   -0.2,   -1.8,   -2.7,   -2.9,   -2.3,   -2.2,   -2.8,   -3.1,   -3.7,   -5.5,  999.0,  999.0,   -2.5,  999.0,   -2.6,   -1.5,  999.0,   -0.8,   -1.0,    0.2,  999.0,   -0.1,   -0.0,  999.0,  999.0,  999.0,  999.0,  999.0,  999.0,  999.0,  999.0,  999.0,  999.0,  999.0,  999.0,  999.0,  999.0,  999.0,  999.0,  999.0,  999.0,  999.0,  999.0,  999.0,  999.0,  999.0,  999.0,  999.0,  999.0,  999.0,  999.0,  999.0,  999.0,  999.0,  999.0,  999.0,  999.0,  999.0,  999.0,  999.0,  999.0,  999.0,  999.0,  999.0,  999.0,  999.0,  999.0,  999.0,  999.0,  999.0
2020/04/13 20:40,    6.4,    6.1,    6.7,    6.7,    6.0,    5.1,    4.2,    3.7,    3.4,    3.3,    1.8,   -0.8,   -2.2,   -2.6,   -2.3,   -1.8,   -1.5,   -1.6,   -2.1,   -3.4,   -4.5,   -4.7,   -3.7,   -4.2,   -3.7,   -2.6,   -2.0,   -0.6,   -0.8,   -0.3,   -0.8,   -0.6,  999.0,  999.0,  999.0,  999.0,  999.0,  999.0,  999.0,  999.0,  999.0,  999.0,  999.0,  999.0,  999.0,  999.0,  999.0,  999.0,  999.0,  999.0,  999.0,  999.0,  999.0,  999.0,  999.0,  999.0,  999.0,  999.0,  999.0,  999.0,  999.0,  999.0,  999.0,  999.0,  999.0,  999.0,  999.0,  999.0,  999.0,  999.0,  999.0,  999.0,  999.0,  999.0,  999.0,  999.0,  999.0,  999.0,  999.0,  999.0
2020/04/13 20:50,    6.2,    6.4,    5.9,    5.7,    4.6,    3.7,    3.7,    3.4,    2.7,    1.9,    2.2,    2.0,    0.3,   -0.8,   -1.7,   -1.5,   -1.2,   -1.1,   -0.8,   -1.1,   -0.6,   -1.0,   -1.3,   -2.4,   -1.6,   -1.0,   -1.4,   -0.7,   -0.5,   -0.4,   -0.8,   -1.0,  999.0,  999.0,  999.0,  999.0,  999.0,  999.0,  999.0,  999.0,  999.0,  999.0,  999.0,  999.0,  999.0,  999.0,  999.0,  999.0,  999.0,  999.0,  999.0,  999.0,  999.0,  999.0,  999.0,  999.0,  999.0,  999.0,  999.0,  999.0,  999.0,  999.0,  999.0,  999.0,  999.0,  999.0,  999.0,  999.0,  999.0,  999.0,  999.0,  999.0,  999.0,  999.0,  999.0,  999.0,  999.0,  999.0,  999.0,  999.0
2020/04/13 21:00,    5.9,    7.7,    7.2,    6.4,    5.2,    5.3,  999.0,    4.5,    3.4,    2.1,    1.6,    0.9,    0.1,   -0.4,   -0.7,   -1.1,   -1.3,   -1.6,   -1.5,   -1.0,   -0.4,   -0.1,    0.7,    0.6,    0.5,    1.0,    1.6,    1.2,    0.6,    0.6,   -0.1,   -0.2,  999.0,  999.0,  999.0,  999.0,  999.0,  999.0,  999.0,  999.0,  999.0,  999.0,  999.0,  999.0,  999.0,  999.0,  999.0,  999.0,  999.0,  999.0,  999.0,  999.0,  999.0,  999.0,  999.0,  999.0,  999.0,  999.0,  999.0,  999.0,  999.0,  999.0,  999.0,  999.0,  999.0,  999.0,  999.0,  999.0,  999.0,  999.0,  999.0,  999.0,  999.0,  999.0,  999.0,  999.0,  999.0,  999.0,  999.0,  999.0
2020/04/13 21:10,    6.8,    7.2,    7.7,    7.6,    7.2,    6.2,  999.0,    6.5,    5.8,    4.9,    4.1,    3.4,    1.9,    0.5,   -0.2,   -1.0,   -1.5,   -1.5,   -0.6,    0.3,    1.3,    0.5,    1.1,    0.9,    0.7,    0.7,   -0.5,   -0.6,   -1.9,   -0.7,  999.0,  999.0,  999.0,   -1.6,   -1.3,   -0.5,   -0.3,  999.0,  999.0,  999.0,  999.0,  999.0,  999.0,  999.0,  999.0,  999.0,  999.0,  999.0,  999.0,  999.0,  999.0,  999.0,  999.0,  999.0,  999.0,  999.0,  999.0,  999.0,  999.0,  999.0,  999.0,  999.0,  999.0,  999.0,  999.0,  999.0,  999.0,  999.0,  999.0,  999.0,  999.0,  999.0,  999.0,  999.0,  999.0,  999.0,  999.0,  999.0,  999.0,  999.0
2020/04/13 21:20,    6.7,    6.1,    6.1,    5.9,    6.3,    5.9,    6.1,    6.1,    5.6,    5.3,    5.0,    4.5,    3.9,    2.6,    0.2,   -1.2,   -2.1,   -1.7,   -0.9,   -0.0,    0.7,    0.8,    1.0,    0.7,    0.2,   -0.1,    0.0,   -0.8,   -0.8,   -0.6,   -0.9,   -0.7,   -0.2,    0.2,   -0.0,   -0.3,   -0.4,   -0.5,   -0.5,  999.0,  999.0,  999.0,  999.0,  999.0,  999.0,  999.0,  999.0,  999.0,  999.0,  999.0,  999.0,  999.0,  999.0,  999.0,  999.0,  999.0,  999.0,  999.0,  999.0,  999.0,  999.0,  999.0,  999.0,  999.0,  999.0,  999.0,  999.0,  999.0,  999.0,  999.0,  999.0,  999.0,  999.0,  999.0,  999.0,  999.0,  999.0,  999.0,  999.0,  999.0
2020/04/13 21:30,  999.0,    6.1,    5.6,    6.3,    6.0,    5.4,    4.8,    5.0,    4.8,    4.4,    4.1,    3.8,    3.4,    2.6,    1.7,    0.6,   -0.3,   -1.4,   -1.3,   -0.6,   -0.0,    0.6,    0.9,    0.7,    0.6,    0.5,    0.2,   -0.2,   -0.3,   -0.3,   -0.0,    0.6,    1.4,    1.8,    1.8,    0.7,   -0.0,    0.3,    0.6,    0.6,    0.7,  999.0,  999.0,  999.0,  999.0,  999.0,  999.0,  999.0,  999.0,  999.0,  999.0,  999.0,  999.0,  999.0,  999.0,  999.0,  999.0,  999.0,  999.0,  999.0,  999.0,  999.0,  999.0,  999.0,  999.0,  999.0,  999.0,  999.0,  999.0,  999.0,  999.0,  999.0,  999.0,  999.0,  999.0,  999.0,  999.0,  999.0,  999.0,  999.0
2020/04/13 21:40,    5.8,    6.5,    6.0,  999.0,  999.0,    5.7,  999.0,    5.4,    5.0,    4.9,    4.6,    4.1,    3.2,    2.9,    2.8,    2.3,    0.9,   -0.1,   -0.3,   -0.3,   -0.3,   -0.5,   -0.6,   -0.8,   -0.5,   -0.3,   -0.0,    0.3,    0.8,    1.1,    1.4,    1.5,    1.9,    1.8,    1.7,    1.4,    1.0,    1.0,    2.1,    2.3,    2.3,    2.3,    1.6,  999.0,  999.0,  999.0,  999.0,  999.0,  999.0,  999.0,  999.0,  999.0,  999.0,  999.0,  999.0,  999.0,  999.0,  999.0,  999.0,  999.0,  999.0,  999.0,  999.0,  999.0,  999.0,  999.0,  999.0,  999.0,  999.0,  999.0,  999.0,  999.0,  999.0,  999.0,  999.0,  999.0,  999.0,  999.0,  999.0,  999.0
2020/04/13 21:50,    5.5,    5.9,    5.3,    4.8,    6.0,    5.7,  999.0,    5.9,    5.6,    5.8,    5.8,    5.6,    4.5,    3.3,    3.0,    2.6,    2.0,    1.6,    1.4,    0.5,   -0.2,   -0.6,   -0.5,   -0.5,   -0.4,   -0.2,    0.2,    0.5,    0.6,    0.9,    1.1,    1.4,    1.6,    1.8,    1.8,    1.3,    1.2,    1.5,    0.9,    0.6,    0.5,  999.0,  999.0,  999.0,  999.0,  999.0,  999.0,  999.0,  999.0,  999.0,  999.0,  999.0,  999.0,  999.0,  999.0,  999.0,  999.0,  999.0,  999.0,  999.0,  999.0,  999.0,  999.0,  999.0,  999.0,  999.0,  999.0,  999.0,  999.0,  999.0,  999.0,  999.0,  999.0,  999.0,  999.0,  999.0,  999.0,  999.0,  999.0,  999.0
2020/04/13 22:00,    4.9,    4.0,    4.9,    5.6,    5.1,    5.6,    5.7,    6.0,    5.8,    5.1,    4.3,    3.3,    1.8,    1.3,    0.4,   -0.3,   -0.5,   -0.9,   -1.7,   -3.3,   -4.4,   -3.8,   -3.5,   -3.1,   -2.4,   -2.0,   -0.8,   -0.4,   -0.6,  999.0,   -0.2,  999.0,  999.0,  999.0,  999.0,  999.0,  999.0,  999.0,  999.0,  999.0,  999.0,  999.0,  999.0,  999.0,  999.0,  999.0,  999.0,  999.0,  999.0,  999.0,  999.0,  999.0,  999.0,  999.0,  999.0,  999.0,  999.0,  999.0,  999.0,  999.0,  999.0,  999.0,  999.0,  999.0,  999.0,  999.0,  999.0,  999.0,  999.0,  999.0,  999.0,  999.0,  999.0,  999.0,  999.0,  999.0,  999.0,  999.0,  999.0,  999.0
2020/04/13 22:10,  999.0,    6.5,  999.0,    3.0,  999.0,    5.4,    6.2,    5.5,    4.0,    2.6,    1.0,   -1.2,   -2.4,   -2.6,   -2.6,   -4.4,   -6.4,   -7.3,   -7.8,   -7.8,   -8.3,   -8.7,   -8.0,   -6.8,   -5.7,   -4.5,   -3.9,   -3.8,   -4.0,  999.0,  999.0,  999.0,  999.0,  999.0,  999.0,  999.0,  999.0,  999.0,  999.0,  999.0,  999.0,  999.0,  999.0,  999.0,  999.0,  999.0,  999.0,  999.0,  999.0,  999.0,  999.0,  999.0,  999.0,  999.0,  999.0,  999.0,  999.0,  999.0,  999.0,  999.0,  999.0,  999.0,  999.0,  999.0,  999.0,  999.0,  999.0,  999.0,  999.0,  999.0,  999.0,  999.0,  999.0,  999.0,  999.0,  999.0,  999.0,  999.0,  999.0,  999.0
2020/04/13 22:20,  999.0,  999.0,    4.2,  999.0,  999.0,    5.5,  999.0,  999.0,    3.0,    2.0,    1.1,    0.6,   -0.2,   -2.1,   -3.4,   -3.3,   -3.4,   -3.6,   -3.4,   -3.1,   -3.2,   -4.4,   -5.0,   -4.8,   -4.3,   -3.8,   -3.3,   -3.5,   -3.7,   -3.9,   -2.7,   -2.0,   -1.8,  999.0,  999.0,  999.0,  999.0,  999.0,  999.0,  999.0,  999.0,  999.0,  999.0,  999.0,  999.0,  999.0,  999.0,  999.0,  999.0,  999.0,  999.0,  999.0,  999.0,  999.0,  999.0,  999.0,  999.0,  999.0,  999.0,  999.0,  999.0,  999.0,  999.0,  999.0,  999.0,  999.0,  999.0,  999.0,  999.0,  999.0,  999.0,  999.0,  999.0,  999.0,  999.0,  999.0,  999.0,  999.0,  999.0,  999.0
2020/04/13 22:30,  999.0,  999.0,  999.0,  999.0,  999.0,  999.0,  999.0,  999.0,    6.0,    4.3,    3.4,    3.0,    3.1,    2.7,    1.1,   -0.7,   -1.5,   -2.1,   -2.0,   -2.2,   -2.4,   -2.5,   -2.7,   -3.3,   -3.7,   -3.6,   -3.9,   -4.1,   -3.7,   -3.7,   -3.3,   -2.9,   -2.9,   -2.9,   -2.9,   -2.9,  999.0,  999.0,  999.0,  999.0,  999.0,  999.0,  999.0,  999.0,  999.0,  999.0,  999.0,  999.0,  999.0,  999.0,  999.0,  999.0,  999.0,  999.0,  999.0,  999.0,  999.0,  999.0,  999.0,  999.0,  999.0,  999.0,  999.0,  999.0,  999.0,  999.0,  999.0,  999.0,  999.0,  999.0,  999.0,  999.0,  999.0,  999.0,  999.0,  999.0,  999.0,  999.0,  999.0,  999.0
2020/04/13 22:40,  999.0,  999.0,  999.0,  999.0,  999.0,    4.9,    5.4,  999.0,    5.6,    4.6,    4.3,  999.0,  999.0,    4.3,    3.0,    2.2,    1.9,    1.0,    0.4,   -0.8,   -1.6,   -2.1,   -2.5,   -2.7,   -2.8,   -2.8,   -2.4,   -2.8,   -1.0,   -0.8,   -1.4,   -1.2,   -1.6,   -0.0,    0.0,    0.1,  999.0,  999.0,  999.0,  999.0,  999.0,  999.0,  999.0,  999.0,  999.0,  999.0,  999.0,  999.0,  999.0,  999.0,  999.0,  999.0,  999.0,  999.0,  999.0,  999.0,  999.0,  999.0,  999.0,  999.0,  999.0,  999.0,  999.0,  999.0,  999.0,  999.0,  999.0,  999.0,  999.0,  999.0,  999.0,  999.0,  999.0,  999.0,  999.0,  999.0,  999.0,  999.0,  999.0,  999.0
2020/04/13 22:50,   -0.0,    0.1,    1.0,    1.8,    0.9,    4.7,    5.4,    6.0,    6.4,    5.6,  999.0,    0.0,  999.0,  999.0,  999.0,  999.0,    0.0,    0.2,    0.2,   -0.1,   -0.4,   -0.3,   -0.7,   -0.5,   -0.7,   -0.2,   -0.2,   -0.3,   -1.0,   -0.6,   -0.4,   -0.9,   -0.5,  999.0,  999.0,   -0.8,  999.0,   -1.0,  999.0,  999.0,  999.0,  999.0,  999.0,  999.0,  999.0,  999.0,  999.0,  999.0,  999.0,  999.0,  999.0,  999.0,  999.0,  999.0,  999.0,  999.0,  999.0,  999.0,  999.0,  999.0,  999.0,  999.0,  999.0,  999.0,  999.0,  999.0,  999.0,  999.0,  999.0,  999.0,  999.0,  999.0,  999.0,  999.0,  999.0,  999.0,  999.0,  999.0,  999.0,  999.0
2020/04/13 23:00,    0.0,    0.4,    0.2,    0.9,    0.5,    4.4,  999.0,    5.0,    6.5,  999.0,    1.6,    0.3,  999.0,  999.0,  999.0,   -0.1,    0.1,    0.1,    0.1,   -0.0,    0.0,    0.0,    0.0,    0.0,   -0.0,   -0.0,   -0.1,   -0.4,   -1.3,   -0.8,  999.0,   -0.1,    0.1,  999.0,  999.0,  999.0,  999.0,  999.0,  999.0,  999.0,  999.0,  999.0,  999.0,  999.0,  999.0,  999.0,  999.0,  999.0,  999.0,  999.0,  999.0,  999.0,  999.0,  999.0,  999.0,  999.0,  999.0,  999.0,  999.0,  999.0,  999.0,  999.0,  999.0,  999.0,  999.0,  999.0,  999.0,  999.0,  999.0,  999.0,  999.0,  999.0,  999.0,  999.0,  999.0,  999.0,  999.0,  999.0,  999.0,  999.0
2020/04/13 23:10,    0.0,    0.4,    0.8,    1.3,    2.7,    5.1,    5.7,    6.0,    7.5,    7.1,    4.9,    3.2,  999.0,   -0.1,    0.0,   -0.5,    0.2,   -0.2,    0.1,    0.0,    0.0,    0.0,    0.1,    0.0,   -0.0,   -0.1,   -0.2,    0.2,    0.1,    0.2,   -0.0,    0.0,   -0.1,   -0.0,  999.0,  999.0,  999.0,  999.0,  999.0,  999.0,  999.0,  999.0,  999.0,  999.0,  999.0,  999.0,  999.0,  999.0,  999.0,  999.0,  999.0,  999.0,  999.0,  999.0,  999.0,  999.0,  999.0,  999.0,  999.0,  999.0,  999.0,  999.0,  999.0,  999.0,  999.0,  999.0,  999.0,  999.0,  999.0,  999.0,  999.0,  999.0,  999.0,  999.0,  999.0,  999.0,  999.0,  999.0,  999.0,  999.0
2020/04/13 23:20,    0.0,    0.1,    0.2,    0.7,    1.1,    4.4,    4.3,    5.1,    5.0,    5.4,  999.0,    0.4,  999.0,  999.0,   -0.4,  999.0,   -0.0,    0.1,   -0.0,    0.0,    0.0,    0.0,   -0.1,   -0.3,   -0.0,    0.1,    0.2,    0.2,   -0.0,    0.1,    0.0,    0.1,  999.0,  999.0,  999.0,  999.0,  999.0,  999.0,  999.0,  999.0,  999.0,  999.0,  999.0,  999.0,  999.0,  999.0,  999.0,  999.0,  999.0,  999.0,  999.0,  999.0,  999.0,  999.0,  999.0,  999.0,  999.0,  999.0,  999.0,  999.0,  999.0,  999.0,  999.0,  999.0,  999.0,  999.0,  999.0,  999.0,  999.0,  999.0,  999.0,  999.0,  999.0,  999.0,  999.0,  999.0,  999.0,  999.0,  999.0,  999.0
2020/04/13 23:30,    0.1,    0.1,    0.4,    0.4,    0.6,    2.9,    2.5,    5.2,    5.9,  999.0,  999.0,  999.0,  999.0,  999.0,  999.0,    0.2,    0.3,    0.4,    0.5,    0.3,    0.2,    0.2,    0.2,   -0.6,   -1.9,   -0.3,    0.0,    0.0,    0.1,   -0.1,    0.0,    0.1,    0.0,   -0.4,  999.0,  999.0,  999.0,  999.0,  999.0,  999.0,  999.0,  999.0,  999.0,  999.0,  999.0,  999.0,  999.0,  999.0,  999.0,  999.0,  999.0,  999.0,  999.0,  999.0,  999.0,  999.0,  999.0,  999.0,  999.0,  999.0,  999.0,  999.0,  999.0,  999.0,  999.0,  999.0,  999.0,  999.0,  999.0,  999.0,  999.0,  999.0,  999.0,  999.0,  999.0,  999.0,  999.0,  999.0,  999.0,  999.0
2020/04/13 23:40,   -0.1,    0.7,  999.0,  999.0,  999.0,    4.5,    4.2,    4.4,  999.0,  999.0,  999.0,    0.5,  999.0,   -0.1,    0.2,  999.0,    0.5,   -0.0,    0.3,    0.2,    0.1,    0.0,    0.1,    0.3,    0.0,    0.1,    0.1,    0.0,    0.1,    0.1,    0.0,    0.1,  999.0,    0.0,  999.0,  999.0,  999.0,  999.0,  999.0,  999.0,  999.0,  999.0,  999.0,  999.0,  999.0,  999.0,  999.0,  999.0,  999.0,  999.0,  999.0,  999.0,  999.0,  999.0,  999.0,  999.0,  999.0,  999.0,  999.0,  999.0,  999.0,  999.0,  999.0,  999.0,  999.0,  999.0,  999.0,  999.0,  999.0,  999.0,  999.0,  999.0,  999.0,  999.0,  999.0,  999.0,  999.0,  999.0,    0.0,  999.0
2020/04/13 23:50,    0.0,   -0.0,    0.3,  999.0,  999.0,  999.0,    4.7,    3.4,    4.6,    4.7,    2.5,    1.3,    5.6,    5.3,    5.0,    3.7,    5.7,  999.0,  999.0,    1.5,    0.3,   -0.0,   -0.1,    0.0,    0.1,   -0.0,   -0.0,   -0.0,    0.1,    0.1,   -0.1,    0.0,    0.1,  999.0,  999.0,  999.0,  999.0,  999.0,  999.0,  999.0,  999.0,  999.0,  999.0,  999.0,  999.0,  999.0,  999.0,  999.0,  999.0,  999.0,  999.0,  999.0,  999.0,  999.0,  999.0,  999.0,  999.0,  999.0,  999.0,  999.0,  999.0,  999.0,  999.0,  999.0,  999.0,  999.0,  999.0,  999.0,  999.0,  999.0,  999.0,  999.0,  999.0,  999.0,  999.0,  999.0,  999.0,  999.0,  999.0,  999.0
